KC5DAQ-28 Weather Reports


Display with metric or nautical units.
time (UTC)temp
F
wind
direction
speed
MPH
gust
MPH
rain 1hr
in
rain 24hr
in
rain mn
in
humidity
%
barometer
mb
20260509160835 78 0 1.0 4.0 0.00 0.00 0.00 85 1005.0
20260509160735 78 0 0.0 4.0 0.00 0.00 0.00 86 1005.1
20260509160636 78 0 0.0 4.0 0.00 0.00 0.00 86 1005.1
20260509160535 78 0 0.0 5.0 0.00 0.00 0.00 86 1005.1
20260509160435 78 0 0.0 5.0 0.00 0.00 0.00 86 1005.1
20260509160336 78 0 0.0 5.0 0.00 0.00 0.00 86 1005.0
20260509160235 78 0 2.0 5.0 0.00 0.00 0.00 86 1004.9
20260509160135 78 0 3.0 5.0 0.00 0.00 0.00 86 1004.9
20260509160037 78 0 3.0 5.0 0.00 0.00 0.00 86 1005.0
20260509155934 78 0 2.0 5.0 0.00 0.00 0.00 86 1005.0
20260509155834 78 14 2.0 5.0 0.00 0.00 0.00 86 1005.0
20260509155734 78 14 3.0 5.0 0.00 0.00 0.00 86 1005.0
20260509155636 78 14 2.0 5.0 0.00 0.00 0.00 86 1005.0
20260509155537 78 166 1.0 4.0 0.00 0.00 0.00 86 1005.0
20260509155435 78 169 1.0 2.0 0.00 0.00 0.00 86 1005.0
20260509155336 78 169 1.0 2.0 0.00 0.00 0.00 86 1005.0
20260509155236 78 171 0.0 0.0 0.00 0.00 0.00 86 1005.1
20260509155135 78 166 0.0 0.0 0.00 0.00 0.00 87 1004.9
20260509155036 78 168 0.0 0.0 0.00 0.00 0.00 86 1005.0
20260509154936 78 168 0.0 0.0 0.00 0.00 0.00 86 1005.0
20260509154837 78 168 0.0 0.0 0.00 0.00 0.00 87 1005.0
20260509154734 78 168 0.0 0.0 0.00 0.00 0.00 86 1005.0
20260509154634 78 168 0.0 0.0 0.00 0.00 0.00 86 1005.0
20260509154536 78 168 0.0 0.0 0.00 0.00 0.00 86 1005.0
20260509154434 78 168 0.0 0.0 0.00 0.00 0.00 86 1004.9
20260509154335 78 168 0.0 0.0 0.00 0.00 0.00 86 1005.0
20260509154235 78 168 0.0 0.0 0.00 0.00 0.00 86 1004.9
20260509154134 78 168 0.0 0.0 0.00 0.00 0.00 86 1005.0
20260509154035 78 168 0.0 0.0 0.00 0.00 0.00 86 1005.0
20260509153935 78 168 0.0 0.0 0.00 0.00 0.00 86 1005.0
20260509153836 78 168 0.0 0.0 0.00 0.00 0.00 86 1005.1
20260509153734 78 168 0.0 0.0 0.00 0.00 0.00 86 1005.0
20260509153635 78 168 0.0 0.0 0.00 0.00 0.00 86 1005.1
20260509153535 78 168 0.0 0.0 0.00 0.00 0.00 86 1005.0
20260509153434 78 168 0.0 0.0 0.00 0.00 0.00 86 1005.0
20260509153335 78 168 0.0 0.0 0.00 0.00 0.00 86 1005.0
20260509153234 78 168 0.0 0.0 0.00 0.00 0.00 86 1004.9
20260509153134 78 168 0.0 0.0 0.00 0.00 0.00 86 1004.9
20260509153034 78 168 0.0 0.0 0.00 0.00 0.00 86 1004.9
20260509152937 78 168 0.0 0.0 0.00 0.00 0.00 86 1004.9
20260509152836 78 169 0.0 0.0 0.00 0.00 0.00 86 1004.9
20260509152734 78 173 0.0 0.0 0.00 0.00 0.00 87 1004.9
20260509152634 78 175 0.0 0.0 0.00 0.00 0.00 87 1004.9
20260509152534 78 175 0.0 0.0 0.00 0.00 0.00 87 1004.8
20260509152436 78 175 0.0 0.0 0.00 0.00 0.00 87 1004.8
20260509152334 78 175 0.0 0.0 0.00 0.00 0.00 87 1004.7
20260509152234 78 175 0.0 0.0 0.00 0.00 0.00 87 1004.8
20260509152134 78 175 0.0 0.0 0.00 0.00 0.00 87 1004.8
20260509152034 78 175 0.0 0.0 0.00 0.00 0.00 87 1004.7
20260509151936 78 175 0.0 0.0 0.00 0.00 0.00 87 1004.7
20260509151834 78 175 0.0 0.0 0.00 0.00 0.00 87 1004.8
20260509151734 78 175 0.0 0.0 0.00 0.00 0.00 87 1004.9
20260509151635 78 175 0.0 0.0 0.00 0.00 0.00 87 1004.9
20260509151534 78 175 0.0 0.0 0.00 0.00 0.00 87 1004.8
20260509151436 78 175 0.0 0.0 0.00 0.00 0.00 87 1004.9
20260509151334 78 175 0.0 0.0 0.00 0.00 0.00 88 1004.9
20260509151235 78 175 0.0 0.0 0.00 0.00 0.00 88 1004.9
20260509151133 78 175 0.0 0.0 0.00 0.00 0.00 88 1005.0
20260509151034 78 175 0.0 0.0 0.00 0.00 0.00 87 1004.9
20260509150934 78 175 0.0 0.0 0.00 0.00 0.00 88 1004.9
20260509150833 78 175 0.0 0.0 0.00 0.00 0.00 88 1004.9
20260509150733 78 175 0.0 0.0 0.00 0.00 0.00 87 1004.9
20260509150634 78 175 0.0 0.0 0.00 0.00 0.00 88 1004.9
20260509150536 78 175 0.0 0.0 0.00 0.00 0.00 88 1004.9
20260509150436 78 175 0.0 0.0 0.00 0.00 0.00 87 1004.8
20260509150335 78 175 0.0 0.0 0.00 0.00 0.00 88 1004.8
20260509150234 78 176 0.0 0.0 0.00 0.00 0.00 88 1004.8
20260509150132 78 176 0.0 0.0 0.00 0.00 0.00 88 1004.7
20260509150034 78 176 0.0 0.0 0.00 0.00 0.00 88 1004.7
20260509145935 78 176 0.0 0.0 0.00 0.00 0.00 88 1004.7
20260509145833 78 176 0.0 0.0 0.00 0.00 0.00 88 1004.7
20260509145733 77 176 0.0 0.0 0.00 0.00 0.00 89 1004.7
20260509145633 77 176 0.0 0.0 0.00 0.00 0.00 89 1004.6
20260509145533 77 176 0.0 0.0 0.00 0.00 0.00 89 1004.6
20260509145435 77 176 0.0 0.0 0.00 0.00 0.00 89 1004.6
20260509145335 77 176 0.0 0.0 0.00 0.00 0.00 89 1004.6
20260509145234 77 176 0.0 0.0 0.00 0.00 0.00 89 1004.5
20260509145133 77 176 0.0 0.0 0.00 0.00 0.00 89 1004.5
20260509145034 77 176 0.0 0.0 0.00 0.00 0.00 89 1004.5
20260509144933 77 176 0.0 0.0 0.00 0.00 0.00 89 1004.5
20260509144833 77 176 0.0 0.0 0.00 0.00 0.00 89 1004.4
20260509144734 77 176 0.0 0.0 0.00 0.00 0.00 89 1004.5
20260509144634 77 176 0.0 0.0 0.00 0.00 0.00 89 1004.4
20260509144533 77 176 0.0 0.0 0.00 0.00 0.00 89 1004.4
20260509144433 77 176 0.0 0.0 0.00 0.00 0.00 89 1004.3
20260509144333 77 176 0.0 0.0 0.00 0.00 0.00 89 1004.3
20260509144233 77 176 0.0 0.0 0.00 0.00 0.00 90 1004.3
20260509144133 77 176 0.0 0.0 0.00 0.00 0.00 90 1004.3
20260509144033 77 176 0.0 0.0 0.00 0.00 0.00 90 1004.3
20260509143933 77 176 0.0 0.0 0.00 0.00 0.00 90 1004.2
20260509143834 76 176 0.0 0.0 0.00 0.00 0.00 90 1004.1
20260509143734 76 176 0.0 0.0 0.00 0.00 0.00 90 1004.1
20260509143633 76 176 0.0 0.0 0.00 0.00 0.00 90 1004.2
20260509143533 76 176 0.0 0.0 0.00 0.00 0.00 90 1004.2
20260509143432 76 176 0.0 0.0 0.00 0.00 0.00 90 1004.3
20260509143333 76 176 0.0 0.0 0.00 0.00 0.00 90 1004.4
20260509143233 76 176 0.0 0.0 0.00 0.00 0.00 90 1004.4
20260509143133 76 176 0.0 0.0 0.00 0.00 0.00 90 1004.4
20260509143033 76 176 0.0 0.0 0.00 0.00 0.00 91 1004.4
20260509142935 76 176 0.0 0.0 0.00 0.00 0.00 91 1004.4
20260509142833 76 176 0.0 0.0 0.00 0.00 0.00 90 1004.4
20260509142736 76 176 0.0 0.0 0.00 0.00 0.00 91 1004.3
20260509142634 76 176 0.0 0.0 0.00 0.00 0.00 91 1004.3
20260509142532 76 176 0.0 0.0 0.00 0.00 0.00 91 1004.2
20260509142435 76 176 0.0 0.0 0.00 0.00 0.00 91 1004.1
20260509142332 76 176 0.0 0.0 0.00 0.00 0.00 91 1004.2
20260509142233 76 176 0.0 0.0 0.00 0.00 0.00 91 1004.1
20260509142133 76 176 0.0 0.0 0.00 0.00 0.00 91 1004.1
20260509142033 76 176 0.0 0.0 0.00 0.00 0.00 91 1004.1
20260509141932 76 176 0.0 0.0 0.00 0.00 0.00 91 1004.1
20260509141832 76 176 0.0 0.0 0.00 0.00 0.00 91 1004.1
20260509141733 76 176 0.0 0.0 0.00 0.00 0.00 91 1004.1
20260509141632 76 176 0.0 0.0 0.00 0.00 0.00 92 1004.1
20260509141533 76 176 0.0 0.0 0.00 0.00 0.00 92 1004.1
20260509141434 76 176 0.0 1.0 0.00 0.00 0.00 92 1004.2
20260509141332 76 176 0.0 1.0 0.00 0.00 0.00 92 1004.1
20260509141233 76 176 0.0 1.0 0.00 0.00 0.00 92 1004.1
20260509141132 76 176 0.0 1.0 0.00 0.00 0.00 92 1004.0
20260509141032 76 176 0.0 1.0 0.00 0.00 0.00 92 1004.0
20260509140933 76 176 0.0 1.0 0.00 0.00 0.00 92 1004.0
20260509140833 76 176 0.0 1.0 0.00 0.00 0.00 92 1004.0
20260509140732 76 176 0.0 1.0 0.00 0.00 0.00 92 1004.0
20260509140632 76 176 0.0 3.0 0.00 0.00 0.00 92 1004.1
20260509140533 76 176 0.0 3.0 0.00 0.00 0.00 92 1004.1
20260509140433 76 176 0.0 3.0 0.00 0.00 0.00 92 1004.2
20260509140332 76 176 0.0 3.0 0.00 0.00 0.00 92 1004.1
20260509140232 76 176 0.0 3.0 0.00 0.00 0.00 92 1004.0
20260509140133 76 176 0.0 3.0 0.00 0.00 0.00 92 1004.0
20260509140033 76 176 0.0 3.0 0.00 0.00 0.00 92 1003.9
20260509135934 76 176 0.0 3.0 0.00 0.00 0.00 92 1003.9
20260509135832 76 176 1.0 3.0 0.00 0.00 0.00 92 1003.9
20260509135732 76 176 1.0 3.0 0.00 0.00 0.00 93 1003.9
20260509135633 76 182 0.0 1.0 0.00 0.00 0.00 93 1003.8
20260509135532 76 183 0.0 1.0 0.00 0.00 0.00 93 1003.9
20260509135432 76 161 0.0 0.0 0.00 0.00 0.00 93 1004.0
20260509135333 76 161 0.0 0.0 0.00 0.00 0.00 93 1004.0
20260509135233 75 161 0.0 0.0 0.00 0.00 0.00 93 1004.1
20260509135133 75 161 0.0 0.0 0.00 0.00 0.00 93 1004.1
20260509135032 75 161 0.0 0.0 0.00 0.00 0.00 93 1004.0
20260509134932 75 161 0.0 1.0 0.00 0.00 0.00 93 1004.1
20260509134832 76 161 0.0 2.0 0.00 0.00 0.00 93 1004.1
20260509134734 75 161 0.0 2.0 0.00 0.00 0.00 93 1004.1
20260509134633 75 161 0.0 3.0 0.00 0.00 0.00 93 1004.1
20260509134532 75 161 0.0 3.0 0.00 0.00 0.00 93 1004.2
20260509134433 75 161 0.0 3.0 0.00 0.00 0.00 93 1004.2
20260509134332 76 161 0.0 3.0 0.00 0.00 0.00 93 1004.2
20260509134232 75 161 0.0 3.0 0.00 0.00 0.00 93 1004.3
20260509134132 75 161 0.0 3.0 0.00 0.00 0.00 93 1004.4
20260509134035 75 161 1.0 3.0 0.00 0.00 0.00 93 1004.4
20260509133932 76 161 1.0 3.0 0.00 0.00 0.00 93 1004.4
20260509133832 76 162 1.0 3.0 0.00 0.00 0.00 93 1004.4
20260509133732 76 162 1.0 3.0 0.00 0.00 0.00 93 1004.4
20260509133632 76 169 0.0 2.0 0.00 0.00 0.00 93 1004.4
20260509133532 76 171 0.0 2.0 0.00 0.00 0.00 93 1004.5
20260509133432 75 171 0.0 2.0 0.00 0.00 0.00 93 1004.5
20260509133331 76 171 0.0 2.0 0.00 0.00 0.00 93 1004.6
20260509133232 75 171 0.0 2.0 0.00 0.00 0.00 93 1004.6
20260509133132 76 171 1.0 2.0 0.00 0.00 0.00 93 1004.6
20260509133031 76 171 1.0 3.0 0.00 0.00 0.00 93 1004.5
20260509132931 76 171 1.0 3.0 0.00 0.00 0.00 93 1004.5
20260509132832 76 171 1.0 3.0 0.00 0.00 0.00 93 1004.5
20260509132733 75 171 2.0 3.0 0.00 0.00 0.00 93 1004.5
20260509132632 75 171 1.0 3.0 0.00 0.00 0.00 94 1004.6
20260509132532 75 172 1.0 3.0 0.00 0.00 0.00 94 1004.7
20260509132431 75 172 1.0 3.0 0.00 0.00 0.00 94 1004.8
20260509132333 75 172 1.0 3.0 0.00 0.00 0.00 94 1004.8
20260509132231 75 172 1.0 3.0 0.00 0.00 0.00 94 1004.8
20260509132131 75 172 1.0 3.0 0.00 0.00 0.00 94 1004.8
20260509132032 75 172 1.0 3.0 0.00 0.00 0.00 94 1004.8
20260509131933 75 172 1.0 3.0 0.00 0.00 0.00 94 1004.8
20260509131831 75 172 1.0 3.0 0.00 0.00 0.00 94 1004.8
20260509131733 75 172 2.0 3.0 0.00 0.00 0.00 94 1004.7
20260509131631 75 176 1.0 3.0 0.00 0.00 0.00 94 1004.8
20260509131531 75 217 0.0 2.0 0.00 0.00 0.00 94 1004.9
20260509131432 75 217 1.0 2.0 0.00 0.00 0.00 94 1004.9
20260509131331 75 217 1.0 2.0 0.00 0.00 0.00 94 1005.0
20260509131231 75 217 0.0 3.0 0.00 0.00 0.00 94 1005.0
20260509131132 75 259 0.0 3.0 0.00 0.00 0.00 94 1004.9
20260509131031 75 259 0.0 3.0 0.00 0.00 0.00 94 1004.9
20260509130932 75 259 0.0 3.0 0.00 0.00 0.00 94 1004.9
20260509130832 75 259 0.0 3.0 0.00 0.00 0.00 94 1004.9
20260509130732 75 259 1.0 3.0 0.00 0.00 0.00 94 1004.8
20260509130629 75 259 1.0 3.0 0.00 0.00 0.00 94 1004.8
20260509130526 75 259 1.0 3.0 0.00 0.00 0.00 94 1004.8
20260509130425 75 261 2.0 3.0 0.00 0.00 0.00 94 1004.8
20260509130324 75 285 2.0 3.0 0.00 0.00 0.00 94 1004.8
20260509130214 75 295 1.0 3.0 0.00 0.00 0.00 94 1004.8
20260509130106 75 295 0.0 1.0 0.00 0.00 0.00 94 1005.0
20260509130003 75 299 0.0 0.0 0.00 0.00 0.00 94 1005.0
20260509125902 75 299 0.0 0.0 0.00 0.00 0.00 94 1005.1
20260509125803 75 299 0.0 0.0 0.00 0.00 0.00 94 1005.1
20260509125704 75 299 0.0 0.0 0.00 0.00 0.00 94 1005.1
20260509125603 75 299 0.0 0.0 0.00 0.00 0.00 94 1005.1
20260509125503 75 300 0.0 0.0 0.00 0.00 0.00 94 1005.0
20260509125402 75 300 0.0 0.0 0.00 0.00 0.00 94 1005.1
20260509125307 75 300 0.0 0.0 0.00 0.00 0.00 94 1005.0
20260509125202 75 300 0.0 0.0 0.00 0.00 0.00 94 1004.9
20260509125104 75 300 0.0 0.0 0.00 0.00 0.00 94 1005.0
20260509125004 75 300 0.0 0.0 0.00 0.00 0.00 94 1005.0
20260509124902 75 300 0.0 1.0 0.00 0.00 0.00 94 1004.9
20260509124802 75 300 0.0 1.0 0.00 0.00 0.00 94 1004.9
20260509124702 75 300 0.0 1.0 0.00 0.00 0.00 94 1004.7
20260509124604 75 300 0.0 1.0 0.00 0.00 0.00 94 1004.8
20260509124502 74 300 0.0 1.0 0.00 0.00 0.00 94 1004.7
20260509124402 74 300 0.0 1.0 0.00 0.00 0.00 94 1004.6
20260509124254 74 300 0.0 1.0 0.00 0.00 0.00 94 1004.6
20260509124141 74 300 0.0 1.0 0.00 0.00 0.00 94 1004.6
20260509124035 74 300 0.0 1.0 0.00 0.00 0.00 94 1004.6
20260509123933 74 300 0.0 1.0 0.00 0.00 0.00 94 1004.7
20260509123831 74 300 0.0 1.0 0.00 0.00 0.00 94 1004.7
20260509123732 74 300 0.0 1.0 0.00 0.00 0.00 94 1004.7
20260509123633 74 300 0.0 1.0 0.00 0.00 0.00 94 1004.8
20260509123530 74 300 0.0 1.0 0.00 0.00 0.00 94 1004.7
20260509123432 74 300 0.0 1.0 0.00 0.00 0.00 94 1004.7
20260509123332 74 300 0.0 1.0 0.00 0.00 0.00 94 1004.7
20260509123231 74 300 0.0 1.0 0.00 0.00 0.00 94 1004.7
20260509123131 74 300 0.0 1.0 0.00 0.00 0.00 94 1004.7
20260509123030 74 300 1.0 1.0 0.00 0.00 0.00 94 1004.7
20260509122930 74 302 1.0 1.0 0.00 0.00 0.00 94 1004.7
20260509122830 74 303 0.0 1.0 0.00 0.00 0.00 94 1004.7
20260509122731 74 306 1.0 1.0 0.00 0.00 0.00 94 1004.7
20260509122630 74 306 1.0 1.0 0.00 0.00 0.00 94 1004.6
20260509122530 74 309 0.0 2.0 0.00 0.00 0.00 94 1004.6
20260509122431 74 309 0.0 2.0 0.00 0.00 0.00 94 1004.5
20260509122330 74 309 0.0 2.0 0.00 0.00 0.00 94 1004.6
20260509122231 74 309 0.0 2.0 0.00 0.00 0.00 94 1004.6
20260509122131 74 309 0.0 2.0 0.00 0.00 0.00 94 1004.5
20260509122032 74 309 0.0 2.0 0.00 0.00 0.00 94 1004.6
20260509121930 74 309 0.0 2.0 0.00 0.00 0.00 94 1004.7
20260509121830 74 309 0.0 2.0 0.00 0.00 0.00 94 1004.7
20260509121731 74 310 1.0 2.0 0.00 0.00 0.00 94 1004.7
20260509121630 74 334 0.0 2.0 0.00 0.00 0.00 94 1004.7
20260509121532 74 336 0.0 1.0 0.00 0.00 0.00 94 1004.7
20260509121432 74 336 0.0 1.0 0.00 0.00 0.00 94 1004.7
20260509121331 74 338 1.0 1.0 0.00 0.00 0.00 94 1004.7
20260509121231 74 338 0.0 1.0 0.00 0.00 0.00 94 1004.6
20260509121130 74 338 0.0 1.0 0.00 0.00 0.00 94 1004.7
20260509121029 74 340 0.0 0.0 0.00 0.00 0.00 94 1004.7
20260509120929 74 340 0.0 0.0 0.00 0.00 0.00 94 1004.7
20260509120832 74 340 0.0 0.0 0.00 0.00 0.00 94 1004.7
20260509120732 74 340 0.0 0.0 0.00 0.00 0.00 94 1004.7
20260509120631 74 340 0.0 0.0 0.00 0.00 0.00 94 1004.7
20260509120532 74 340 0.0 0.0 0.00 0.00 0.00 94 1004.7
20260509120431 74 340 0.0 0.0 0.00 0.00 0.00 94 1004.7
20260509120329 74 340 0.0 0.0 0.00 0.00 0.00 94 1004.7
20260509120230 74 340 0.0 0.0 0.00 0.00 0.00 94 1004.7
20260509120131 74 340 0.0 0.0 0.00 0.00 0.00 94 1004.5
20260509120031 74 340 0.0 0.0 0.00 0.00 0.00 94 1004.5
20260509115931 74 340 0.0 0.0 0.00 0.00 0.00 94 1004.5
20260509115831 74 340 0.0 0.0 0.00 0.00 0.00 94 1004.4
20260509115730 74 340 0.0 0.0 0.00 0.00 0.00 94 1004.4
20260509115630 74 340 0.0 0.0 0.00 0.00 0.00 94 1004.4
20260509115530 74 340 0.0 0.0 0.00 0.00 0.00 94 1004.4
20260509115430 74 340 0.0 0.0 0.00 0.00 0.00 94 1004.5
20260509115330 74 340 0.0 0.0 0.00 0.00 0.00 94 1004.5
20260509115230 74 340 0.0 0.0 0.00 0.00 0.00 94 1004.5
20260509115130 74 340 0.0 0.0 0.00 0.00 0.00 94 1004.5
20260509115029 74 340 0.0 0.0 0.00 0.00 0.00 94 1004.6
20260509114930 74 340 0.0 0.0 0.00 0.00 0.00 94 1004.5
20260509114829 74 340 0.0 0.0 0.00 0.00 0.00 94 1004.5
20260509114731 74 340 0.0 1.0 0.00 0.00 0.00 94 1004.5
20260509114630 74 340 0.0 2.0 0.00 0.00 0.00 94 1004.4
20260509114529 74 340 0.0 2.0 0.00 0.00 0.00 94 1004.4
20260509114430 74 340 0.0 3.0 0.00 0.00 0.00 94 1004.3
20260509114331 74 340 0.0 3.0 0.00 0.00 0.00 94 1004.4
20260509114230 74 340 0.0 3.0 0.00 0.00 0.00 94 1004.4
20260509114129 74 340 0.0 3.0 0.00 0.00 0.00 94 1004.4
20260509114030 74 340 0.0 3.0 0.00 0.00 0.00 94 1004.4
20260509113930 74 340 0.0 3.0 0.00 0.00 0.00 94 1004.4
20260509113830 74 340 1.0 3.0 0.00 0.00 0.00 94 1004.5
20260509113730 74 340 1.0 3.0 0.00 0.00 0.00 94 1004.5
20260509113629 74 340 2.0 3.0 0.00 0.00 0.00 94 1004.5
20260509113530 74 340 2.0 3.0 0.00 0.00 0.00 94 1004.6
20260509113430 74 340 2.0 3.0 0.00 0.00 0.00 94 1004.6
20260509113329 74 340 2.0 3.0 0.00 0.00 0.00 94 1004.7
20260509113230 74 340 2.0 3.0 0.00 0.00 0.00 94 1004.7
20260509113128 74 340 1.0 3.0 0.00 0.00 0.00 94 1004.8
20260509113031 74 340 0.0 3.0 0.00 0.00 0.00 94 1004.8
20260509112931 74 340 2.0 3.0 0.00 0.00 0.00 94 1004.7
20260509112831 74 340 2.0 3.0 0.00 0.00 0.00 94 1004.7
20260509112730 74 340 2.0 3.0 0.00 0.00 0.00 94 1004.7
20260509112628 74 340 2.0 3.0 0.00 0.00 0.00 94 1004.7
20260509112530 74 340 1.0 3.0 0.00 0.00 0.00 94 1004.6
20260509112428 74 340 0.0 2.0 0.00 0.00 0.00 94 1004.6
20260509112331 74 340 0.0 3.0 0.00 0.00 0.00 94 1004.5
20260509112230 74 340 0.0 3.0 0.00 0.00 0.00 94 1004.5
20260509112129 74 340 0.0 3.0 0.00 0.00 0.00 94 1004.5
20260509112029 74 340 0.0 5.0 0.00 0.00 0.00 94 1004.6
20260509111931 74 340 0.0 5.0 0.00 0.00 0.00 94 1004.7
20260509111830 74 340 0.0 5.0 0.00 0.00 0.00 94 1004.7
20260509111730 74 340 0.0 5.0 0.00 0.00 0.00 94 1004.7
20260509111630 74 340 1.0 5.0 0.00 0.00 0.00 94 1004.7
20260509111530 74 340 2.0 5.0 0.00 0.00 0.00 94 1004.7
20260509111429 74 340 2.0 5.0 0.00 0.00 0.00 94 1004.7
20260509111328 74 340 3.0 5.0 0.00 0.00 0.00 94 1004.6
20260509111226 74 340 3.0 5.0 0.00 0.00 0.00 94 1004.8
20260509111125 74 340 4.0 5.0 0.00 0.00 0.00 94 1004.7
20260509111018 74 340 4.0 5.0 0.00 0.00 0.00 94 1004.7
20260509110916 74 336 4.0 5.0 0.00 0.00 0.00 94 1004.6
20260509110815 74 340 4.0 5.0 0.00 0.00 0.00 94 1004.8
20260509110710 74 0 3.0 4.0 0.00 0.00 0.00 94 1004.7
20260509110603 74 14 1.0 4.0 0.00 0.00 0.00 94 1004.6
20260509110504 74 89 0.0 0.0 0.00 0.00 0.00 94 1004.7
20260509110403 74 93 0.0 0.0 0.00 0.00 0.00 94 1004.5
20260509110303 74 94 0.0 0.0 0.00 0.00 0.00 94 1004.5
20260509110203 74 131 0.0 0.0 0.00 0.00 0.00 94 1004.5
20260509110104 74 134 0.0 0.0 0.00 0.00 0.00 94 1004.5
20260509110004 74 134 0.0 0.0 0.00 0.00 0.00 94 1004.4
20260509105901 74 134 0.0 0.0 0.00 0.00 0.00 94 1004.4
20260509105802 74 134 0.0 0.0 0.00 0.00 0.00 94 1004.3
20260509105702 74 134 0.0 0.0 0.00 0.00 0.00 94 1004.3
20260509105604 74 134 0.0 0.0 0.00 0.00 0.00 94 1004.2
20260509105505 74 134 0.0 0.0 0.00 0.00 0.00 94 1004.2
20260509105403 74 134 0.0 0.0 0.00 0.00 0.00 94 1004.1
20260509105306 74 134 0.0 0.0 0.00 0.00 0.00 94 1004.1
20260509105203 74 134 0.0 0.0 0.00 0.00 0.00 94 1004.1
20260509105103 74 134 0.0 0.0 0.00 0.00 0.00 94 1004.0
20260509105004 74 134 0.0 0.0 0.00 0.00 0.00 94 1004.0
20260509104903 74 134 0.0 0.0 0.00 0.00 0.00 94 1003.9
20260509104804 74 134 0.0 0.0 0.00 0.00 0.00 94 1003.9
20260509104703 74 134 0.0 0.0 0.00 0.00 0.00 94 1003.9
20260509104604 74 134 0.0 0.0 0.00 0.00 0.00 94 1003.9
20260509104502 74 134 0.0 0.0 0.00 0.00 0.00 94 1004.0
20260509104403 74 134 0.0 0.0 0.00 0.00 0.00 94 1004.1
20260509104302 74 134 0.0 0.0 0.00 0.00 0.00 94 1004.0
20260509104202 74 134 0.0 0.0 0.00 0.00 0.00 94 1004.0
20260509104108 74 134 0.0 0.0 0.00 0.00 0.00 94 1004.1
20260509104004 74 134 0.0 0.0 0.00 0.00 0.00 94 1004.0
20260509103902 74 134 0.0 0.0 0.00 0.00 0.00 94 1004.0
20260509103803 74 134 0.0 0.0 0.00 0.00 0.00 94 1004.1
20260509103702 74 134 0.0 1.0 0.00 0.00 0.00 94 1004.0
20260509103604 74 134 0.0 1.0 0.00 0.00 0.00 94 1004.0
20260509103504 74 134 0.0 1.0 0.00 0.00 0.00 94 1004.0
20260509103402 74 134 0.0 1.0 0.00 0.00 0.00 94 1004.1
20260509103303 74 134 0.0 1.0 0.00 0.00 0.00 94 1004.0
20260509103202 74 134 0.0 1.0 0.00 0.00 0.00 94 1004.1
20260509103104 74 134 0.0 1.0 0.00 0.00 0.00 94 1004.1
20260509103002 74 134 0.0 1.0 0.00 0.00 0.00 94 1004.0
20260509102904 74 134 0.0 1.0 0.00 0.00 0.00 94 1004.0
20260509102803 74 134 0.0 1.0 0.00 0.00 0.00 94 1003.9
20260509102703 74 134 0.0 1.0 0.00 0.00 0.00 94 1004.0
20260509102604 74 134 0.0 1.0 0.00 0.00 0.00 94 1004.0
20260509102504 74 134 0.0 1.0 0.00 0.00 0.00 94 1004.0
20260509102404 74 134 0.0 1.0 0.00 0.00 0.00 94 1003.9
20260509102305 74 134 0.0 1.0 0.00 0.00 0.00 94 1003.9
20260509102203 74 134 0.0 1.0 0.00 0.00 0.00 94 1003.9
20260509102103 74 134 0.0 2.0 0.00 0.00 0.00 94 1004.0
20260509102003 74 134 0.0 2.0 0.00 0.00 0.00 94 1004.0
20260509101904 74 134 0.0 2.0 0.00 0.00 0.00 94 1004.1
20260509101802 74 134 0.0 2.0 0.00 0.00 0.00 94 1004.0
20260509101702 74 134 0.0 2.0 0.00 0.00 0.00 94 1004.0
20260509101602 74 134 0.0 2.0 0.00 0.00 0.00 94 1003.9
20260509101503 74 134 0.0 2.0 0.00 0.00 0.00 94 1003.9
20260509101403 74 134 0.0 2.0 0.00 0.00 0.00 94 1003.9
20260509101303 74 134 1.0 2.0 0.00 0.00 0.00 94 1003.9
20260509101204 74 134 0.0 2.0 0.00 0.00 0.00 94 1003.8
20260509101103 74 134 0.0 1.0 0.00 0.00 0.00 94 1003.8
20260509101003 74 134 0.0 0.0 0.00 0.00 0.00 94 1003.8
20260509100903 74 134 0.0 0.0 0.00 0.00 0.00 94 1003.9
20260509100802 74 134 0.0 0.0 0.00 0.00 0.00 94 1003.8
20260509100703 74 134 0.0 0.0 0.00 0.00 0.00 94 1003.8
20260509100604 74 134 0.0 0.0 0.00 0.00 0.00 94 1003.8
20260509100503 74 134 0.0 0.0 0.00 0.00 0.00 94 1003.7
20260509100403 74 134 0.0 0.0 0.00 0.00 0.00 94 1003.7
20260509100302 74 134 0.0 0.0 0.00 0.00 0.00 94 1003.7
20260509100204 74 134 0.0 0.0 0.00 0.00 0.00 94 1003.7
20260509095950 74 134 0.0 0.0 0.00 0.00 0.00 94 1003.6
20260509095835 74 134 0.0 0.0 0.00 0.00 0.00 94 1003.6
20260509095733 74 134 0.0 0.0 0.00 0.00 0.00 94 1003.6
20260509095630 74 134 0.0 0.0 0.00 0.00 0.00 94 1003.6
20260509095532 74 134 0.0 0.0 0.00 0.00 0.00 94 1003.6
20260509095432 74 134 0.0 0.0 0.00 0.00 0.00 94 1003.6
20260509095330 74 134 0.0 0.0 0.00 0.00 0.00 94 1003.5
20260509095229 74 134 0.0 0.0 0.00 0.00 0.00 94 1003.5
20260509095126 74 134 0.0 0.0 0.00 0.00 0.00 93 1003.5
20260509095027 74 134 0.0 0.0 0.00 0.00 0.00 94 1003.5
20260509094928 75 134 0.0 0.0 0.00 0.00 0.00 93 1003.5
20260509094826 74 134 0.0 0.0 0.00 0.00 0.00 93 1003.6
20260509094728 74 134 0.0 0.0 0.00 0.00 0.00 93 1003.6
20260509094626 74 134 0.0 0.0 0.00 0.00 0.00 93 1003.6
20260509094526 74 134 0.0 0.0 0.00 0.00 0.00 93 1003.6
20260509094428 75 134 0.0 0.0 0.00 0.00 0.00 93 1003.6
20260509094327 74 134 0.0 0.0 0.00 0.00 0.00 93 1003.6
20260509094227 75 134 0.0 0.0 0.00 0.00 0.00 93 1003.6
20260509094128 75 134 0.0 0.0 0.00 0.00 0.00 93 1003.6
20260509094029 75 134 0.0 0.0 0.00 0.00 0.00 93 1003.5
20260509093927 75 134 0.0 1.0 0.00 0.00 0.00 93 1003.6
20260509093826 75 134 0.0 2.0 0.00 0.00 0.00 93 1003.5
20260509093726 75 134 0.0 3.0 0.00 0.00 0.00 93 1003.6
20260509093627 75 134 0.0 3.0 0.00 0.00 0.00 93 1003.5
20260509093528 75 134 0.0 3.0 0.00 0.00 0.00 93 1003.5
20260509093428 75 134 0.0 3.0 0.00 0.00 0.00 93 1003.6
20260509093327 75 134 0.0 3.0 0.00 0.00 0.00 93 1003.5
20260509093228 75 134 0.0 3.0 0.00 0.00 0.00 93 1003.6
20260509093126 75 134 0.0 3.0 0.00 0.00 0.00 93 1003.5
20260509093028 75 134 1.0 3.0 0.00 0.00 0.00 93 1003.6
20260509092928 75 134 2.0 3.0 0.00 0.00 0.00 93 1003.6
20260509092826 75 135 1.0 3.0 0.00 0.00 0.00 93 1003.7
20260509092726 75 137 1.0 2.0 0.00 0.00 0.00 93 1003.7
20260509092626 75 135 1.0 2.0 0.00 0.00 0.00 93 1003.6
20260509092526 75 135 1.0 2.0 0.00 0.00 0.00 93 1003.7
20260509092426 75 135 1.0 2.0 0.00 0.00 0.00 93 1003.8
20260509092326 75 135 0.0 2.0 0.00 0.00 0.00 93 1003.7
20260509092226 75 135 0.0 0.0 0.00 0.00 0.00 93 1003.8
20260509092127 75 137 0.0 0.0 0.00 0.00 0.00 93 1003.9
20260509092027 75 137 0.0 0.0 0.00 0.00 0.00 93 1003.7
20260509091926 75 137 0.0 0.0 0.00 0.00 0.00 93 1003.8
20260509091827 75 137 0.0 0.0 0.00 0.00 0.00 93 1003.7
20260509091727 75 137 0.0 0.0 0.00 0.00 0.00 93 1003.6
20260509091627 75 137 0.0 0.0 0.00 0.00 0.00 93 1003.6
20260509091527 75 137 0.0 0.0 0.00 0.00 0.00 93 1003.6
20260509091427 75 137 0.0 0.0 0.00 0.00 0.00 93 1003.7
20260509091326 75 137 0.0 0.0 0.00 0.00 0.00 93 1003.8
20260509091226 75 137 0.0 0.0 0.00 0.00 0.00 93 1003.8
20260509091126 75 137 0.0 0.0 0.00 0.00 0.00 93 1003.8
20260509091027 75 137 0.0 0.0 0.00 0.00 0.00 93 1004.0
20260509090926 75 137 0.0 0.0 0.00 0.00 0.00 93 1003.9
20260509090826 75 137 0.0 0.0 0.00 0.00 0.00 93 1004.0
20260509090725 75 137 0.0 0.0 0.00 0.00 0.00 93 1004.0
20260509090627 75 137 0.0 0.0 0.00 0.00 0.00 93 1003.9
20260509090526 75 137 0.0 0.0 0.00 0.00 0.00 93 1004.0
20260509090425 75 137 0.0 0.0 0.00 0.00 0.00 93 1004.0
20260509090326 75 137 0.0 0.0 0.00 0.00 0.00 93 1004.0
20260509090226 75 137 0.0 0.0 0.00 0.00 0.00 93 1004.0
20260509090125 75 137 0.0 0.0 0.00 0.00 0.00 93 1004.0
20260509090027 75 137 0.0 0.0 0.00 0.00 0.00 93 1004.0
20260509085927 75 137 0.0 0.0 0.00 0.00 0.00 93 1003.9
20260509085826 75 137 0.0 0.0 0.00 0.00 0.00 93 1004.0
20260509085727 75 137 0.0 0.0 0.00 0.00 0.00 93 1004.0
20260509085626 75 137 0.0 0.0 0.00 0.00 0.00 93 1004.1
20260509085525 75 137 0.0 0.0 0.00 0.00 0.00 93 1004.0
20260509085425 75 137 0.0 0.0 0.00 0.00 0.00 93 1004.0
20260509085327 75 137 0.0 0.0 0.00 0.00 0.00 93 1004.0
20260509085225 75 137 0.0 0.0 0.00 0.00 0.00 93 1004.0
20260509085127 75 137 0.0 0.0 0.00 0.00 0.00 93 1004.1
20260509085027 75 137 0.0 0.0 0.00 0.00 0.00 93 1004.2
20260509084927 75 137 0.0 0.0 0.00 0.00 0.00 93 1004.1
20260509084825 75 137 0.0 0.0 0.00 0.00 0.00 93 1004.1
20260509084727 75 137 0.0 0.0 0.00 0.00 0.00 93 1004.2
20260509084625 75 137 0.0 0.0 0.00 0.00 0.00 93 1004.2
20260509084526 75 137 0.0 0.0 0.00 0.00 0.00 93 1004.1
20260509084425 75 137 0.0 0.0 0.00 0.00 0.00 93 1004.1
20260509084326 75 137 0.0 0.0 0.00 0.00 0.00 93 1004.1
20260509084225 75 137 0.0 0.0 0.00 0.00 0.00 93 1004.1
20260509084127 75 137 0.0 0.0 0.00 0.00 0.00 93 1004.1
20260509084025 75 137 0.0 0.0 0.00 0.00 0.00 93 1004.1
20260509083926 75 137 0.0 0.0 0.00 0.00 0.00 93 1004.0
20260509083825 75 137 0.0 0.0 0.00 0.00 0.00 93 1004.1
20260509083725 75 137 0.0 0.0 0.00 0.00 0.00 93 1004.1
20260509083625 75 137 0.0 0.0 0.00 0.00 0.00 93 1004.1
20260509083528 75 137 0.0 0.0 0.00 0.00 0.00 93 1004.1
20260509083425 75 137 0.0 0.0 0.00 0.00 0.00 93 1004.2
20260509083326 75 137 0.0 0.0 0.00 0.00 0.00 93 1004.2
20260509083226 75 137 0.0 0.0 0.00 0.00 0.00 93 1004.1
20260509083126 75 137 0.0 0.0 0.00 0.00 0.00 93 1004.1
20260509083026 75 137 0.0 0.0 0.00 0.00 0.00 93 1004.0
20260509082924 75 137 0.0 0.0 0.00 0.00 0.00 93 1004.0
20260509082824 75 137 0.0 0.0 0.00 0.00 0.00 93 1004.0
20260509082724 75 137 0.0 0.0 0.00 0.00 0.00 93 1003.9
20260509082627 75 137 0.0 0.0 0.00 0.00 0.00 93 1003.9
20260509082525 75 137 0.0 0.0 0.00 0.00 0.00 93 1003.9
20260509082424 75 137 0.0 0.0 0.00 0.00 0.00 93 1003.9
20260509082324 75 137 0.0 0.0 0.00 0.00 0.00 93 1003.9
20260509082226 75 137 0.0 1.0 0.00 0.00 0.00 93 1003.9
20260509082126 75 137 0.0 1.0 0.00 0.00 0.00 93 1004.0
20260509082026 75 137 0.0 1.0 0.00 0.00 0.00 93 1004.0
20260509081926 75 137 0.0 1.0 0.00 0.00 0.00 93 1004.0
20260509081824 75 137 0.0 3.0 0.00 0.00 0.00 93 1003.9
20260509081725 75 137 0.0 3.0 0.00 0.00 0.00 93 1004.0
20260509081625 75 137 0.0 3.0 0.00 0.00 0.00 93 1004.0
20260509081525 75 137 0.0 3.0 0.00 0.00 0.00 93 1003.9
20260509081426 75 137 0.0 3.0 0.00 0.00 0.00 93 1003.9
20260509081324 75 137 0.0 3.0 0.00 0.00 0.00 93 1003.9
20260509081226 75 135 0.0 3.0 0.00 0.00 0.00 93 1004.0
20260509081124 75 135 0.0 3.0 0.00 0.00 0.00 93 1004.0
20260509081025 75 135 1.0 3.0 0.00 0.00 0.00 93 1004.0
20260509080925 75 135 1.0 3.0 0.00 0.00 0.00 93 1004.0
20260509080824 75 137 1.0 2.0 0.00 0.00 0.00 93 1004.0
20260509080726 75 137 0.0 2.0 0.00 0.00 0.00 93 1003.9
20260509080625 75 131 0.0 2.0 0.00 0.00 0.00 93 1003.9
20260509080525 75 131 1.0 2.0 0.00 0.00 0.00 93 1003.8
20260509080425 75 131 1.0 2.0 0.00 0.00 0.00 93 1003.8
20260509080324 75 131 0.0 3.0 0.00 0.00 0.00 93 1003.8
20260509080225 75 131 0.0 3.0 0.00 0.00 0.00 93 1003.8
20260509080125 75 131 0.0 3.0 0.00 0.00 0.00 93 1003.8
20260509080024 75 131 1.0 3.0 0.00 0.00 0.00 93 1003.8
20260509075924 75 131 1.0 4.0 0.00 0.00 0.00 93 1003.8
20260509075825 75 131 1.0 4.0 0.00 0.00 0.00 93 1003.8
20260509075724 75 131 1.0 4.0 0.00 0.00 0.00 93 1003.8
20260509075624 75 131 0.0 4.0 0.00 0.00 0.00 93 1003.8
20260509075525 75 131 2.0 4.0 0.00 0.00 0.00 93 1003.8
20260509075424 75 131 2.0 4.0 0.00 0.00 0.00 93 1003.8
20260509075326 75 114 2.0 4.0 0.00 0.00 0.00 93 1003.8
20260509075225 75 114 2.0 4.0 0.00 0.00 0.00 93 1003.8
20260509075125 75 114 3.0 4.0 0.00 0.00 0.00 93 1003.8
20260509075026 75 111 2.0 4.0 0.00 0.00 0.00 93 1003.9
20260509074925 75 111 2.0 4.0 0.00 0.00 0.00 93 1003.8
20260509074824 75 111 3.0 4.0 0.00 0.00 0.00 93 1003.9
20260509074723 75 110 3.0 4.0 0.00 0.00 0.00 93 1003.9
20260509074625 75 114 3.0 4.0 0.00 0.00 0.00 93 1004.0
20260509074524 75 114 3.0 4.0 0.00 0.00 0.00 93 1003.9
20260509074425 75 114 2.0 4.0 0.00 0.00 0.00 93 1003.9
20260509074323 75 116 2.0 4.0 0.00 0.00 0.00 93 1003.8
20260509074225 75 116 3.0 4.0 0.00 0.00 0.00 93 1003.8
20260509074126 75 114 2.0 5.0 0.00 0.00 0.00 93 1003.7
20260509074024 75 116 1.0 5.0 0.00 0.00 0.00 93 1003.8
20260509073925 75 116 2.0 7.0 0.00 0.00 0.00 93 1003.7
20260509073824 75 116 2.0 7.0 0.00 0.00 0.00 92 1003.8
20260509073725 75 116 3.0 7.0 0.00 0.00 0.00 92 1003.8
20260509073626 75 116 3.0 7.0 0.00 0.00 0.00 93 1003.8
20260509073524 75 117 3.0 7.0 0.00 0.00 0.00 92 1003.8
20260509073424 75 117 3.0 7.0 0.00 0.00 0.00 92 1003.9
20260509073323 75 113 3.0 7.0 0.00 0.00 0.00 92 1003.9
20260509073223 75 113 3.0 7.0 0.00 0.00 0.00 92 1003.9
20260509073123 75 123 4.0 7.0 0.00 0.00 0.00 92 1003.9
20260509073024 75 97 4.0 7.0 0.00 0.00 0.00 92 1003.9
20260509072923 75 117 3.0 6.0 0.00 0.00 0.00 92 1003.9
20260509072823 75 117 3.0 6.0 0.00 0.00 0.00 92 1003.8
20260509072723 75 118 2.0 6.0 0.00 0.00 0.00 92 1003.9
20260509072625 75 116 3.0 6.0 0.00 0.00 0.00 92 1003.8
20260509072524 75 117 4.0 6.0 0.00 0.00 0.00 92 1003.8
20260509072423 75 102 2.0 6.0 0.00 0.00 0.00 92 1003.7
20260509072323 75 111 2.0 6.0 0.00 0.00 0.00 92 1003.6
20260509072223 75 111 4.0 6.0 0.00 0.00 0.00 92 1003.6
20260509072124 75 104 3.0 6.0 0.00 0.00 0.00 92 1003.6
20260509072025 75 127 3.0 6.0 0.00 0.00 0.00 92 1003.6
20260509071923 75 125 4.0 6.0 0.00 0.00 0.00 92 1003.5
20260509071826 75 111 4.0 6.0 0.00 0.00 0.00 92 1003.5
20260509071725 75 142 4.0 6.0 0.00 0.00 0.00 92 1003.6
20260509071623 75 134 3.0 6.0 0.00 0.00 0.00 92 1003.6
20260509071525 75 133 4.0 6.0 0.00 0.00 0.00 92 1003.6
20260509071423 75 125 4.0 6.0 0.00 0.00 0.00 92 1003.6
20260509071323 75 152 4.0 5.0 0.00 0.00 0.00 92 1003.6
20260509071223 75 135 3.0 5.0 0.00 0.00 0.00 92 1003.6
20260509071124 75 125 2.0 5.0 0.00 0.00 0.00 92 1003.7
20260509071022 75 127 2.0 5.0 0.00 0.00 0.00 92 1003.7
20260509070924 75 123 3.0 5.0 0.00 0.00 0.00 92 1003.8
20260509070824 75 128 3.0 4.0 0.00 0.00 0.00 92 1003.8
20260509070724 75 137 2.0 4.0 0.00 0.00 0.00 92 1003.8
20260509070636 75 137 2.0 4.0 0.00 0.00 0.00 92 1004.0
20260509070628 75 140 2.0 4.0 0.00 0.00 0.00 92 1003.9
20260509070606 75 141 2.0 4.0 0.00 0.00 0.00 92 1003.9
20260509070540 75 141 2.0 4.0 0.00 0.00 0.00 92 1003.9
20260509070204 75 137 2.0 4.0 0.00 0.00 0.00 92 1004.0
20260509070104 75 138 1.0 3.0 0.00 0.00 0.00 92 1004.0
20260509070004 75 138 2.0 3.0 0.00 0.00 0.00 92 1004.0
20260509065903 75 140 1.0 3.0 0.00 0.00 0.00 92 1004.0
20260509065801 75 140 1.0 3.0 0.00 0.00 0.00 92 1003.9
20260509065703 75 140 1.0 3.0 0.00 0.00 0.00 92 1004.0
20260509065603 75 141 1.0 4.0 0.00 0.00 0.00 92 1004.0
20260509065505 75 140 2.0 4.0 0.00 0.00 0.00 92 1004.0
20260509065403 75 138 2.0 4.0 0.00 0.00 0.00 92 1004.0
20260509065306 75 137 2.0 6.0 0.00 0.00 0.00 92 1004.0
20260509065204 75 133 2.0 6.0 0.00 0.00 0.00 92 1004.0
20260509065103 75 133 2.0 6.0 0.00 0.00 0.00 92 1004.1
20260509065003 75 134 2.0 6.0 0.00 0.00 0.00 92 1004.0
20260509064904 75 123 2.0 6.0 0.00 0.00 0.00 92 1004.0
20260509064803 75 124 2.0 6.0 0.00 0.00 0.00 92 1004.0
20260509064704 75 110 3.0 6.0 0.00 0.00 0.00 92 1004.0
20260509064602 75 111 3.0 6.0 0.00 0.00 0.00 92 1004.0
20260509064502 75 106 4.0 6.0 0.00 0.00 0.00 92 1004.0
20260509064404 75 104 4.0 6.0 0.00 0.00 0.00 92 1004.1
20260509064302 75 120 3.0 4.0 0.00 0.00 0.00 92 1004.1
20260509064203 75 116 2.0 4.0 0.00 0.00 0.00 92 1004.2
20260509064104 75 116 3.0 4.0 0.00 0.00 0.00 92 1004.1
20260509064004 75 116 2.0 4.0 0.00 0.00 0.00 92 1004.1
20260509063901 75 117 2.0 3.0 0.00 0.00 0.00 92 1004.1
20260509063802 75 117 2.0 3.0 0.00 0.00 0.00 92 1004.3
20260509063702 75 116 2.0 3.0 0.00 0.00 0.00 92 1004.2
20260509063603 75 114 2.0 3.0 0.00 0.00 0.00 92 1004.2
20260509063503 75 107 2.0 3.0 0.00 0.00 0.00 92 1004.3
20260509063405 75 107 2.0 3.0 0.00 0.00 0.00 92 1004.2
20260509063302 75 107 2.0 3.0 0.00 0.00 0.00 92 1004.2
20260509063204 75 107 2.0 4.0 0.00 0.00 0.00 92 1004.3
20260509063049 75 107 2.0 4.0 0.00 0.00 0.00 92 1004.3
20260509062934 75 107 2.0 4.0 0.00 0.00 0.00 92 1004.3
20260509062833 75 107 1.0 4.0 0.00 0.00 0.00 92 1004.3
20260509062731 75 107 1.0 4.0 0.00 0.00 0.00 92 1004.3
20260509062632 75 107 2.0 4.0 0.00 0.00 0.00 92 1004.3
20260509062531 75 107 2.0 4.0 0.00 0.00 0.00 92 1004.3
20260509062431 75 109 3.0 4.0 0.00 0.00 0.00 92 1004.4
20260509062332 75 109 3.0 4.0 0.00 0.00 0.00 92 1004.2
20260509062233 75 127 2.0 4.0 0.00 0.00 0.00 92 1004.3
20260509062133 75 127 2.0 4.0 0.00 0.00 0.00 92 1004.3
20260509062033 75 127 2.0 4.0 0.00 0.00 0.00 92 1004.4
20260509061931 75 127 3.0 4.0 0.00 0.00 0.00 92 1004.3
20260509061832 75 142 2.0 3.0 0.00 0.00 0.00 92 1004.4
20260509061733 75 142 2.0 3.0 0.00 0.00 0.00 92 1004.4
20260509061633 75 142 2.0 3.0 0.00 0.00 0.00 92 1004.4
20260509061533 75 142 2.0 3.0 0.00 0.00 0.00 92 1004.4
20260509061432 75 144 2.0 3.0 0.00 0.00 0.00 92 1004.5
20260509061328 75 144 1.0 3.0 0.00 0.00 0.00 92 1004.5
20260509061227 75 144 0.0 3.0 0.00 0.00 0.00 92 1004.5
20260509061122 75 144 0.0 3.0 0.00 0.00 0.00 92 1004.5
20260509061023 75 144 0.0 3.0 0.00 0.00 0.00 92 1004.6
20260509060923 75 144 0.0 4.0 0.00 0.00 0.00 92 1004.5
20260509060821 75 144 0.0 4.0 0.00 0.00 0.00 91 1004.5
20260509060722 75 144 0.0 4.0 0.00 0.00 0.00 91 1004.6
20260509060621 75 144 1.0 4.0 0.00 0.00 0.00 91 1004.7
20260509060523 75 144 2.0 4.0 0.00 0.00 0.00 91 1004.6
20260509060423 75 144 2.0 4.0 0.00 0.00 0.00 91 1004.5
20260509060321 75 144 2.0 4.0 0.00 0.00 0.00 91 1004.6
20260509060224 75 144 1.0 4.0 0.00 0.00 0.00 91 1004.6
20260509060122 75 144 2.0 4.0 0.00 0.00 0.00 91 1004.6
20260509060022 75 144 2.0 4.0 0.00 0.00 0.00 91 1004.6
20260509055924 75 145 2.0 4.0 0.00 0.00 0.00 91 1004.6
20260509055821 75 145 2.0 4.0 0.00 0.00 0.00 91 1004.5
20260509055723 75 147 2.0 4.0 0.00 0.00 0.00 91 1004.4
20260509055622 75 147 1.0 4.0 0.00 0.00 0.00 91 1004.5
20260509055521 75 147 1.0 4.0 0.00 0.00 0.00 91 1004.4
20260509055423 75 147 2.0 4.0 0.00 0.00 0.00 91 1004.4
20260509055323 75 147 3.0 4.0 0.00 0.00 0.00 91 1004.5
20260509055222 75 148 2.0 4.0 0.00 0.00 0.00 91 1004.5
20260509055121 75 158 2.0 4.0 0.00 0.00 0.00 91 1004.6
20260509055021 75 158 1.0 4.0 0.00 0.00 0.00 91 1004.5
20260509054921 75 110 1.0 4.0 0.00 0.00 0.00 91 1004.5
20260509054821 75 110 2.0 4.0 0.00 0.00 0.00 91 1004.6
20260509054722 75 109 1.0 5.0 0.00 0.00 0.00 91 1004.6
20260509054621 75 109 1.0 5.0 0.00 0.00 0.00 91 1004.6
20260509054524 75 109 2.0 6.0 0.00 0.00 0.00 91 1004.6
20260509054422 75 107 3.0 6.0 0.00 0.00 0.00 91 1004.6
20260509054322 75 107 3.0 6.0 0.00 0.00 0.00 91 1004.5
20260509054223 75 107 3.0 6.0 0.00 0.00 0.00 91 1004.5
20260509054122 75 102 3.0 6.0 0.00 0.00 0.00 91 1004.5
20260509054021 75 102 4.0 6.0 0.00 0.00 0.00 91 1004.4
20260509053921 75 102 4.0 6.0 0.00 0.00 0.00 91 1004.5
20260509053822 75 109 4.0 6.0 0.00 0.00 0.00 91 1004.5
20260509053722 75 110 4.0 6.0 0.00 0.00 0.00 91 1004.4
20260509053622 75 109 4.0 6.0 0.00 0.00 0.00 91 1004.5
20260509053521 75 107 3.0 5.0 0.00 0.00 0.00 91 1004.5
20260509053423 75 107 3.0 5.0 0.00 0.00 0.00 91 1004.5
20260509053322 75 102 3.0 5.0 0.00 0.00 0.00 91 1004.5
20260509053221 75 100 3.0 5.0 0.00 0.00 0.00 91 1004.5
20260509053123 75 100 3.0 5.0 0.00 0.00 0.00 91 1004.4
20260509053020 75 103 3.0 5.0 0.00 0.00 0.00 91 1004.4
20260509052911 75 104 3.0 5.0 0.00 0.00 0.00 91 1004.4
20260509052810 75 106 4.0 5.0 0.00 0.00 0.00 91 1004.4
20260509052708 75 106 4.0 5.0 0.00 0.00 0.00 91 1004.4
20260509052604 75 103 3.0 5.0 0.00 0.00 0.00 91 1004.5
20260509052504 75 103 3.0 5.0 0.00 0.00 0.00 91 1004.5
20260509052403 75 104 3.0 6.0 0.00 0.00 0.00 91 1004.6
20260509052306 75 94 3.0 6.0 0.00 0.00 0.00 91 1004.5
20260509052203 75 96 3.0 6.0 0.00 0.00 0.00 91 1004.6
20260509052102 75 93 3.0 6.0 0.00 0.00 0.00 91 1004.5
20260509052004 75 93 3.0 6.0 0.00 0.00 0.00 91 1004.6
20260509051902 75 93 3.0 6.0 0.00 0.00 0.00 91 1004.5
20260509051804 75 78 3.0 6.0 0.00 0.00 0.00 91 1004.5
20260509051702 75 100 4.0 7.0 0.00 0.00 0.00 91 1004.5
20260509051605 75 102 4.0 7.0 0.00 0.00 0.00 91 1004.5
20260509051504 75 110 4.0 7.0 0.00 0.00 0.00 91 1004.5
20260509051403 75 106 4.0 7.0 0.00 0.00 0.00 91 1004.5
20260509051305 75 102 3.0 7.0 0.00 0.00 0.00 91 1004.6
20260509051204 75 103 3.0 7.0 0.00 0.00 0.00 91 1004.6
20260509051102 75 103 4.0 7.0 0.00 0.00 0.00 91 1004.5
20260509051005 75 104 4.0 7.0 0.00 0.00 0.00 91 1004.6
20260509050902 75 97 5.0 7.0 0.00 0.00 0.00 91 1004.6
20260509050802 75 107 4.0 7.0 0.00 0.00 0.00 91 1004.6
20260509050703 75 94 4.0 6.0 0.00 0.00 0.00 91 1004.6
20260509050604 75 109 4.0 6.0 0.00 0.00 0.00 91 1004.6
20260509050504 75 94 3.0 5.0 0.00 0.00 0.00 91 1004.5
20260509050404 75 94 2.0 5.0 0.00 0.00 0.00 91 1004.5
20260509050301 75 94 2.0 5.0 0.00 0.00 0.00 91 1004.5
20260509050201 75 97 3.0 5.0 0.00 0.00 0.00 91 1004.5
20260509050004 75 96 3.0 7.0 0.00 0.00 0.00 91 1004.4
20260509045902 74 89 3.0 7.0 0.00 0.00 0.00 91 1004.4
20260509045803 75 89 2.0 7.0 0.00 0.00 0.00 91 1004.4
20260509045702 75 87 3.0 7.0 0.00 0.00 0.00 91 1004.5
20260509045603 75 89 3.0 7.0 0.00 0.00 0.00 91 1004.4
20260509045505 75 111 2.0 7.0 0.00 0.00 0.00 91 1004.4
20260509045402 75 99 2.0 7.0 0.00 0.00 0.00 91 1004.4
20260509045306 74 99 3.0 7.0 0.00 0.00 0.00 91 1004.4
20260509045202 75 97 4.0 7.0 0.00 0.00 0.00 91 1004.5
20260509045103 75 79 4.0 5.0 0.00 0.00 0.00 91 1004.5
20260509045003 74 102 4.0 6.0 0.00 0.00 0.00 91 1004.5
20260509044903 74 96 3.0 6.0 0.00 0.00 0.00 91 1004.5
20260509044804 74 94 4.0 6.0 0.00 0.00 0.00 91 1004.6
20260509044702 74 96 3.0 6.0 0.00 0.00 0.00 91 1004.5
20260509044603 74 85 4.0 6.0 0.00 0.00 0.00 91 1004.6
20260509044503 74 106 4.0 6.0 0.00 0.00 0.00 91 1004.6
20260509044402 74 103 3.0 6.0 0.00 0.00 0.00 91 1004.6
20260509044302 74 97 3.0 6.0 0.00 0.00 0.00 91 1004.6
20260509044202 75 99 3.0 6.0 0.00 0.00 0.00 91 1004.6
20260509044102 74 104 3.0 6.0 0.00 0.00 0.00 91 1004.6
20260509044002 74 100 3.0 5.0 0.00 0.00 0.00 91 1004.7
20260509043904 74 100 2.0 4.0 0.00 0.00 0.00 91 1004.7
20260509043804 74 102 2.0 5.0 0.00 0.00 0.00 91 1004.7
20260509043656 74 104 2.0 5.0 0.00 0.00 0.00 91 1004.7
20260509043556 74 106 2.0 5.0 0.00 0.00 0.00 91 1004.7
20260509043449 74 106 2.0 5.0 0.00 0.00 0.00 91 1004.7
20260509043343 74 104 2.0 5.0 0.00 0.00 0.00 91 1004.6
20260509043240 74 106 3.0 5.0 0.00 0.00 0.00 91 1004.6
20260509043139 74 104 3.0 5.0 0.00 0.00 0.00 91 1004.6
20260509043032 74 104 3.0 5.0 0.00 0.00 0.00 91 1004.6
20260509042932 74 104 3.0 5.0 0.00 0.00 0.00 91 1004.6
20260509042832 74 110 3.0 5.0 0.00 0.00 0.00 91 1004.6
20260509042732 74 110 3.0 5.0 0.00 0.00 0.00 91 1004.6
20260509042632 74 107 3.0 5.0 0.00 0.00 0.00 91 1004.7
20260509042533 74 107 3.0 5.0 0.00 0.00 0.00 91 1004.7
20260509042432 74 109 3.0 5.0 0.00 0.00 0.00 91 1004.6
20260509042332 74 109 2.0 5.0 0.00 0.00 0.00 91 1004.7
20260509042232 74 109 3.0 5.0 0.00 0.00 0.00 91 1004.7
20260509042133 74 110 4.0 5.0 0.00 0.00 0.00 91 1004.7
20260509042031 74 104 4.0 5.0 0.00 0.00 0.00 91 1004.7
20260509041931 74 104 3.0 5.0 0.00 0.00 0.00 91 1004.6
20260509041832 74 116 3.0 5.0 0.00 0.00 0.00 91 1004.6
20260509041733 74 116 4.0 5.0 0.00 0.00 0.00 91 1004.6
20260509041632 74 118 4.0 5.0 0.00 0.00 0.00 91 1004.7
20260509041532 74 110 4.0 5.0 0.00 0.00 0.00 91 1004.6
20260509041432 74 117 4.0 5.0 0.00 0.00 0.00 91 1004.5
20260509041332 74 109 3.0 6.0 0.00 0.00 0.00 91 1004.6
20260509041232 74 110 3.0 6.0 0.00 0.00 0.00 91 1004.6
20260509041132 74 111 3.0 6.0 0.00 0.00 0.00 91 1004.5
20260509041033 74 142 3.0 6.0 0.00 0.00 0.00 91 1004.6
20260509040932 74 142 3.0 6.0 0.00 0.00 0.00 91 1004.5
20260509040832 74 111 3.0 6.0 0.00 0.00 0.00 91 1004.6
20260509040732 74 113 3.0 6.0 0.00 0.00 0.00 91 1004.5
20260509040633 74 113 2.0 6.0 0.00 0.00 0.00 91 1004.5
20260509040531 74 113 4.0 6.0 0.00 0.00 0.00 91 1004.5
20260509040433 74 114 5.0 6.0 0.00 0.00 0.00 91 1004.6
20260509040331 74 103 5.0 6.0 0.00 0.00 0.00 91 1004.5
20260509040232 74 100 4.0 6.0 0.00 0.00 0.00 91 1004.5
20260509040132 74 111 4.0 4.0 0.00 0.00 0.00 91 1004.5
20260509040022 74 113 3.0 5.0 0.00 0.00 0.00 91 1004.4
20260509035918 74 110 2.0 5.0 0.00 0.00 0.00 91 1004.4
20260509035819 74 110 1.0 5.0 0.00 0.00 0.00 90 1004.5
20260509035719 74 107 2.0 5.0 0.00 0.00 0.00 90 1004.5
20260509035613 74 107 2.0 5.0 0.00 0.00 0.00 90 1004.4
20260509035511 74 109 2.0 5.0 0.00 0.00 0.00 90 1004.4
20260509035410 74 106 3.0 5.0 0.00 0.00 0.00 90 1004.4
20260509035307 74 106 3.0 6.0 0.00 0.00 0.00 90 1004.4
20260509035207 74 102 3.0 7.0 0.00 0.00 0.00 90 1004.3
20260509035103 74 100 3.0 7.0 0.00 0.00 0.00 90 1004.4
20260509035003 74 104 3.0 7.0 0.00 0.00 0.00 90 1004.3
20260509034902 74 104 3.0 7.0 0.00 0.00 0.00 90 1004.3
20260509034803 74 90 4.0 7.0 0.00 0.00 0.00 90 1004.2
20260509034703 74 96 4.0 7.0 0.00 0.00 0.00 90 1004.2
20260509034604 74 97 4.0 7.0 0.00 0.00 0.00 90 1004.2
20260509034504 74 106 5.0 7.0 0.00 0.00 0.00 90 1004.1
20260509034401 74 111 5.0 7.0 0.00 0.00 0.00 90 1004.2
20260509034303 74 107 6.0 7.0 0.00 0.00 0.00 90 1004.1
20260509034204 74 113 5.0 7.0 0.00 0.00 0.00 90 1004.2
20260509034103 74 104 5.0 7.0 0.00 0.00 0.00 90 1004.2
20260509034002 74 94 4.0 7.0 0.00 0.00 0.00 90 1004.1
20260509033903 74 107 4.0 7.0 0.00 0.00 0.00 90 1004.1
20260509033803 74 131 4.0 7.0 0.00 0.00 0.00 90 1004.1
20260509033704 74 103 4.0 10.0 0.00 0.00 0.00 90 1004.1
20260509033604 74 103 4.0 11.0 0.00 0.00 0.00 90 1004.1
20260509033502 74 102 4.0 11.0 0.00 0.00 0.00 90 1004.1
20260509033403 74 104 5.0 11.0 0.00 0.00 0.00 90 1004.1
20260509033302 74 85 3.0 11.0 0.00 0.00 0.00 90 1004.2
20260509033202 74 90 3.0 11.0 0.00 0.00 0.00 90 1004.2
20260509033103 74 133 4.0 11.0 0.00 0.00 0.00 90 1004.1
20260509033002 74 113 4.0 11.0 0.00 0.00 0.00 90 1004.1
20260509032903 74 73 5.0 11.0 0.00 0.00 0.00 90 1004.2
20260509032802 74 90 6.0 11.0 0.00 0.00 0.00 90 1004.1
20260509032703 74 83 6.0 11.0 0.00 0.00 0.00 90 1004.1
20260509032602 74 106 5.0 7.0 0.00 0.00 0.00 90 1004.1
20260509032502 74 106 5.0 7.0 0.00 0.00 0.00 90 1004.1
20260509032404 74 107 5.0 7.0 0.00 0.00 0.00 90 1004.0
20260509032306 74 93 5.0 7.0 0.00 0.00 0.00 90 1004.1
20260509032203 74 85 5.0 7.0 0.00 0.00 0.00 90 1004.1
20260509032105 74 109 4.0 6.0 0.00 0.00 0.00 90 1004.0
20260509032005 74 86 3.0 6.0 0.00 0.00 0.00 90 1004.0
20260509031902 74 96 3.0 5.0 0.00 0.00 0.00 90 1004.1
20260509031802 74 104 2.0 7.0 0.00 0.00 0.00 90 1004.0
20260509031703 74 104 3.0 7.0 0.00 0.00 0.00 90 1004.0
20260509031604 74 103 3.0 7.0 0.00 0.00 0.00 90 1004.0
20260509031504 74 99 3.0 7.0 0.00 0.00 0.00 90 1004.0
20260509031403 74 100 3.0 7.0 0.00 0.00 0.00 90 1004.1
20260509031302 74 106 3.0 7.0 0.00 0.00 0.00 90 1004.2
20260509031203 74 110 4.0 7.0 0.00 0.00 0.00 90 1004.2
20260509031102 74 113 4.0 7.0 0.00 0.00 0.00 90 1004.1
20260509031004 74 100 5.0 7.0 0.00 0.00 0.00 90 1004.1
20260509030903 74 87 5.0 7.0 0.00 0.00 0.00 90 1004.1
20260509030803 74 99 4.0 7.0 0.00 0.00 0.00 90 1004.1
20260509030702 74 90 4.0 7.0 0.00 0.00 0.00 90 1004.0
20260509030602 74 93 4.0 7.0 0.00 0.00 0.00 90 1004.1
20260509030504 74 87 4.0 7.0 0.00 0.00 0.00 90 1004.0
20260509030403 74 100 5.0 7.0 0.00 0.00 0.00 90 1004.0
20260509030303 74 71 3.0 6.0 0.00 0.00 0.00 90 1004.1
20260509030205 74 99 2.0 7.0 0.00 0.00 0.00 90 1004.1
20260509030004 74 92 2.0 7.0 0.00 0.00 0.00 90 1004.0
20260509025902 74 93 2.0 7.0 0.00 0.00 0.00 90 1004.0
20260509025803 74 92 3.0 7.0 0.00 0.00 0.00 90 1004.0
20260509025702 74 94 4.0 7.0 0.00 0.00 0.00 90 1004.0
20260509025603 74 87 4.0 7.0 0.00 0.00 0.00 90 1003.9
20260509025503 74 89 4.0 7.0 0.00 0.00 0.00 90 1004.0
20260509025403 74 103 4.0 7.0 0.00 0.00 0.00 90 1004.0
20260509025306 74 93 4.0 7.0 0.00 0.00 0.00 90 1004.0
20260509025203 74 110 3.0 6.0 0.00 0.00 0.00 90 1004.0
20260509025103 74 110 3.0 6.0 0.00 0.00 0.00 90 1004.0
20260509025004 74 97 2.0 6.0 0.00 0.00 0.00 90 1004.0
20260509024903 74 97 3.0 6.0 0.00 0.00 0.00 90 1004.0
20260509024803 74 96 3.0 6.0 0.00 0.00 0.00 90 1004.0
20260509024704 74 92 2.0 6.0 0.00 0.00 0.00 90 1004.1
20260509024604 74 90 2.0 6.0 0.00 0.00 0.00 90 1004.1
20260509024503 74 89 2.0 6.0 0.00 0.00 0.00 90 1004.1
20260509024404 74 89 3.0 6.0 0.00 0.00 0.00 90 1004.0
20260509024304 74 85 2.0 6.0 0.00 0.00 0.00 90 1004.0
20260509024204 74 94 2.0 4.0 0.00 0.00 0.00 90 1004.0
20260509024103 74 94 2.0 4.0 0.00 0.00 0.00 90 1003.9
20260509024001 74 94 1.0 4.0 0.00 0.00 0.00 90 1003.9
20260509023903 74 96 2.0 4.0 0.00 0.00 0.00 90 1003.9
20260509023803 74 96 2.0 4.0 0.00 0.00 0.00 90 1003.8
20260509023704 74 96 1.0 4.0 0.00 0.00 0.00 90 1003.8
20260509023604 74 96 2.0 4.0 0.00 0.00 0.00 90 1003.9
20260509023505 74 86 2.0 4.0 0.00 0.00 0.00 90 1003.9
20260509023403 74 86 2.0 4.0 0.00 0.00 0.00 90 1003.9
20260509023303 74 90 2.0 4.0 0.00 0.00 0.00 90 1003.9
20260509023203 74 89 2.0 4.0 0.00 0.00 0.00 90 1003.8
20260509023103 74 89 2.0 4.0 0.00 0.00 0.00 90 1003.8
20260509023003 74 89 1.0 5.0 0.00 0.00 0.00 90 1003.9
20260509022903 74 87 2.0 5.0 0.00 0.00 0.00 90 1003.8
20260509022803 74 87 2.0 5.0 0.00 0.00 0.00 90 1003.7
20260509022704 74 85 3.0 5.0 0.00 0.00 0.00 90 1003.7
20260509022603 74 85 3.0 5.0 0.00 0.00 0.00 90 1003.7
20260509022503 74 83 2.0 5.0 0.00 0.00 0.00 90 1003.7
20260509022403 74 80 1.0 5.0 0.00 0.00 0.00 90 1003.7
20260509022306 74 82 2.0 5.0 0.00 0.00 0.00 90 1003.7
20260509022203 74 89 2.0 5.0 0.00 0.00 0.00 90 1003.7
20260509022105 74 89 2.0 5.0 0.00 0.00 0.00 90 1003.8
20260509022005 74 85 2.0 5.0 0.00 0.00 0.00 90 1003.8
20260509021903 74 83 2.0 5.0 0.00 0.00 0.00 90 1003.7
20260509021803 74 87 2.0 5.0 0.00 0.00 0.00 90 1003.7
20260509021703 74 87 2.0 5.0 0.00 0.00 0.00 90 1003.7
20260509021604 74 89 2.0 5.0 0.00 0.00 0.00 90 1003.7
20260509021504 74 87 2.0 5.0 0.00 0.00 0.00 90 1003.7
20260509021403 74 87 2.0 5.0 0.00 0.00 0.00 90 1003.7
20260509021303 74 63 1.0 5.0 0.00 0.00 0.00 90 1003.6
20260509021202 74 83 1.0 3.0 0.00 0.00 0.00 90 1003.6
20260509021104 74 83 1.0 3.0 0.00 0.00 0.00 90 1003.5
20260509021004 74 83 1.0 4.0 0.00 0.00 0.00 90 1003.6
20260509020904 74 82 1.0 4.0 0.00 0.00 0.00 90 1003.6
20260509020802 74 82 1.0 4.0 0.00 0.00 0.00 90 1003.5
20260509020704 74 82 1.0 4.0 0.00 0.00 0.00 90 1003.5
20260509020602 74 82 1.0 4.0 0.00 0.00 0.00 90 1003.5
20260509020504 74 83 1.0 4.0 0.00 0.00 0.00 90 1003.5
20260509020403 74 83 0.0 4.0 0.00 0.00 0.00 90 1003.6
20260509020303 74 83 0.0 4.0 0.00 0.00 0.00 90 1003.5
20260509020203 74 82 2.0 4.0 0.00 0.00 0.00 90 1003.5
20260509020104 74 82 2.0 4.0 0.00 0.00 0.00 90 1003.4
20260509020002 74 82 1.0 4.0 0.00 0.00 0.00 90 1003.4
20260509015905 74 79 2.0 4.0 0.00 0.00 0.00 90 1003.4
20260509015802 74 79 2.0 4.0 0.00 0.00 0.00 90 1003.4
20260509015703 74 82 1.0 4.0 0.00 0.00 0.00 90 1003.5
20260509015603 74 59 1.0 4.0 0.00 0.00 0.00 90 1003.4
20260509015505 74 51 2.0 4.0 0.00 0.00 0.00 90 1003.4
20260509015403 74 110 2.0 4.0 0.00 0.00 0.00 90 1003.4
20260509015305 74 80 1.0 4.0 0.00 0.00 0.00 90 1003.5
20260509015203 74 30 0.0 4.0 0.00 0.00 0.00 90 1003.5
20260509015103 74 30 0.0 4.0 0.00 0.00 0.00 90 1003.5
20260509015003 74 30 0.0 6.0 0.00 0.00 0.00 90 1003.5
20260509014903 74 30 1.0 6.0 0.00 0.00 0.00 90 1003.5
20260509014803 74 31 1.0 6.0 0.00 0.00 0.00 90 1003.5
20260509014703 74 31 1.0 6.0 0.00 0.00 0.00 90 1003.4
20260509014602 74 31 2.0 6.0 0.00 0.00 0.00 90 1003.5
20260509014503 74 49 2.0 6.0 0.00 0.00 0.00 90 1003.5
20260509014402 74 49 2.0 6.0 0.00 0.00 0.00 90 1003.4
20260509014304 74 49 2.0 6.0 0.00 0.00 0.00 90 1003.4
20260509014203 74 48 2.0 6.0 0.00 0.00 0.00 90 1003.3
20260509014102 74 51 1.0 6.0 0.00 0.00 0.00 90 1003.3
20260509014004 74 63 2.0 6.0 0.00 0.00 0.00 90 1003.4
20260509013903 74 61 3.0 6.0 0.00 0.00 0.00 90 1003.4
20260509013802 74 103 2.0 6.0 0.00 0.00 0.00 90 1003.5
20260509013701 74 99 2.0 6.0 0.00 0.00 0.00 89 1003.4
20260509013602 74 102 2.0 6.0 0.00 0.00 0.00 89 1003.5
20260509013504 74 109 2.0 6.0 0.00 0.00 0.00 89 1003.5
20260509013403 74 118 2.0 6.0 0.00 0.00 0.00 89 1003.4
20260509013303 74 118 4.0 6.0 0.00 0.00 0.00 89 1003.4
20260509013204 74 103 3.0 6.0 0.00 0.00 0.00 89 1003.5
20260509013102 74 85 2.0 5.0 0.00 0.00 0.00 89 1003.4
20260509013004 74 51 2.0 5.0 0.00 0.00 0.00 89 1003.4
20260509012902 74 97 1.0 5.0 0.00 0.00 0.00 89 1003.4
20260509012803 74 94 2.0 5.0 0.00 0.00 0.00 89 1003.5
20260509012704 74 71 2.0 5.0 0.00 0.00 0.00 89 1003.5
20260509012604 74 59 3.0 6.0 0.00 0.00 0.00 89 1003.4
20260509012504 74 144 2.0 6.0 0.00 0.00 0.00 89 1003.4
20260509012403 74 54 1.0 6.0 0.00 0.00 0.00 89 1003.4
20260509012306 74 63 2.0 6.0 0.00 0.00 0.00 89 1003.3
20260509012204 74 103 3.0 6.0 0.00 0.00 0.00 89 1003.3
20260509012102 74 86 2.0 6.0 0.00 0.00 0.00 89 1003.3
20260509012004 74 106 2.0 6.0 0.00 0.00 0.00 89 1003.4
20260509011904 74 97 3.0 6.0 0.00 0.00 0.00 89 1003.4
20260509011803 74 99 4.0 7.0 0.00 0.00 0.00 89 1003.4
20260509011702 74 75 4.0 7.0 0.00 0.00 0.00 89 1003.4
20260509011602 74 92 3.0 7.0 0.00 0.00 0.00 89 1003.4
20260509011502 74 90 4.0 7.0 0.00 0.00 0.00 89 1003.3
20260509011404 74 96 4.0 7.0 0.00 0.00 0.00 89 1003.3
20260509011303 74 94 4.0 7.0 0.00 0.00 0.00 89 1003.3
20260509011202 74 102 3.0 10.0 0.00 0.00 0.00 89 1003.3
20260509011104 74 123 4.0 10.0 0.00 0.00 0.00 89 1003.3
20260509011002 74 107 4.0 10.0 0.00 0.00 0.00 89 1003.3
20260509010901 74 102 4.0 10.0 0.00 0.00 0.00 89 1003.3
20260509010802 74 86 5.0 10.0 0.00 0.00 0.00 89 1003.3
20260509010702 74 97 5.0 10.0 0.00 0.00 0.00 89 1003.3
20260509010604 74 103 3.0 10.0 0.00 0.00 0.00 89 1003.3
20260509010504 74 114 3.0 10.0 0.00 0.00 0.00 89 1003.4
20260509010404 74 103 4.0 10.0 0.00 0.00 0.00 89 1003.3
20260509010302 74 90 4.0 10.0 0.00 0.00 0.00 89 1003.3
20260509010203 74 96 3.0 7.0 0.00 0.00 0.00 89 1003.3
20260509010006 74 128 3.0 7.0 0.00 0.00 0.00 89 1003.2
20260509005904 74 97 4.0 7.0 0.00 0.00 0.00 89 1003.3
20260509005803 74 97 4.0 7.0 0.00 0.00 0.00 89 1003.3
20260509005703 74 99 4.0 7.0 0.00 0.00 0.00 89 1003.3
20260509005602 74 107 4.0 7.0 0.00 0.00 0.00 89 1003.2
20260509005505 74 85 4.0 7.0 0.00 0.00 0.00 89 1003.3
20260509005404 74 83 3.0 7.0 0.00 0.00 0.00 89 1003.3
20260509005305 74 99 2.0 7.0 0.00 0.00 0.00 89 1003.3
20260509005202 74 89 3.0 7.0 0.00 0.00 0.00 89 1003.3
20260509005103 74 85 4.0 7.0 0.00 0.00 0.00 89 1003.3
20260509005004 74 79 5.0 7.0 0.00 0.00 0.00 89 1003.3
20260509004903 74 117 4.0 6.0 0.00 0.00 0.00 89 1003.3
20260509004804 74 59 4.0 6.0 0.00 0.00 0.00 89 1003.2
20260509004704 74 86 4.0 6.0 0.00 0.00 0.00 89 1003.2
20260509004602 74 102 2.0 6.0 0.00 0.00 0.00 89 1003.2
20260509004503 74 96 2.0 6.0 0.00 0.00 0.00 89 1003.2
20260509004403 74 96 3.0 6.0 0.00 0.00 0.00 89 1003.1
20260509004303 74 93 3.0 6.0 0.00 0.00 0.00 89 1003.1
20260509004205 74 89 3.0 6.0 0.00 0.00 0.00 89 1003.1
20260509004102 74 89 2.0 6.0 0.00 0.00 0.00 89 1003.2
20260509004003 74 92 2.0 6.0 0.00 0.00 0.00 89 1003.2
20260509003903 74 92 4.0 6.0 0.00 0.00 0.00 89 1003.2
20260509003804 74 78 3.0 6.0 0.00 0.00 0.00 89 1003.2
20260509003703 74 65 4.0 6.0 0.00 0.00 0.00 89 1003.3
20260509003602 74 65 4.0 6.0 0.00 0.00 0.00 89 1003.3
20260509003504 74 86 2.0 7.0 0.00 0.00 0.00 89 1003.2
20260509003404 74 102 2.0 7.0 0.00 0.00 0.00 89 1003.2
20260509003304 74 102 2.0 7.0 0.00 0.00 0.00 89 1003.3
20260509003203 74 79 2.0 7.0 0.00 0.00 0.00 89 1003.3
20260509003102 74 82 2.0 7.0 0.00 0.00 0.00 89 1003.2
20260509003004 74 82 2.0 7.0 0.00 0.00 0.00 89 1003.2
20260509002903 74 72 2.0 7.0 0.00 0.00 0.00 89 1003.2
20260509002803 74 72 3.0 7.0 0.00 0.00 0.00 89 1003.2
20260509002702 74 100 4.0 7.0 0.00 0.00 0.00 89 1003.3
20260509002603 74 85 5.0 7.0 0.00 0.00 0.00 89 1003.2
20260509002504 74 97 6.0 7.0 0.00 0.00 0.00 89 1003.2
20260509002404 74 90 5.0 7.0 0.00 0.00 0.00 89 1003.2
20260509002305 74 80 4.0 7.0 0.00 0.00 0.00 89 1003.2
20260509002202 74 82 3.0 6.0 0.00 0.00 0.00 89 1003.3
20260509002102 74 103 4.0 7.0 0.00 0.00 0.00 89 1003.2
20260509002003 74 90 4.0 9.0 0.00 0.00 0.00 89 1003.2
20260509001902 74 86 3.0 9.0 0.00 0.00 0.00 89 1003.2
20260509001803 74 100 3.0 9.0 0.00 0.00 0.00 89 1003.2
20260509001702 74 100 2.0 9.0 0.00 0.00 0.00 89 1003.2
20260509001602 74 100 2.0 9.0 0.00 0.00 0.00 89 1003.2
20260509001502 74 90 3.0 9.0 0.00 0.00 0.00 89 1003.2
20260509001403 74 104 4.0 9.0 0.00 0.00 0.00 89 1003.3
20260509001258 74 90 4.0 9.0 0.00 0.00 0.00 89 1003.3
20260509001152 74 87 4.0 9.0 0.00 0.00 0.00 89 1003.2
20260509001046 74 97 4.0 9.0 0.00 0.00 0.00 89 1003.2
20260509000947 74 111 3.0 5.0 0.00 0.00 0.00 89 1003.2
20260509000841 74 92 2.0 5.0 0.00 0.00 0.00 89 1003.3
20260509000740 74 90 2.0 5.0 0.00 0.00 0.00 89 1003.2
20260509000637 74 90 2.0 5.0 0.00 0.00 0.00 89 1003.2
20260509000531 74 90 3.0 5.0 0.00 0.00 0.00 89 1003.3
20260509000432 74 102 2.0 5.0 0.00 0.00 0.00 89 1003.4
20260509000330 74 96 1.0 5.0 0.00 0.00 0.00 89 1003.3
20260509000223 74 97 1.0 5.0 0.00 0.00 0.00 89 1003.4
20260509000119 74 71 1.0 5.0 0.00 0.00 0.00 89 1003.4
20260509000016 74 71 1.0 5.0 0.00 0.00 0.00 89 1003.3
20260508235913 74 68 1.0 5.0 0.00 0.00 0.00 89 1003.4
20260508235815 74 68 1.0 5.0 0.00 0.00 0.00 89 1003.4
20260508235713 74 66 2.0 5.0 0.00 0.00 0.00 89 1003.4
20260508235614 74 65 3.0 5.0 0.00 0.00 0.00 89 1003.5
20260508235515 74 63 2.0 5.0 0.00 0.00 0.00 89 1003.4
20260508235414 74 68 2.0 5.0 0.00 0.00 0.00 89 1003.4
20260508235316 74 75 1.0 5.0 0.00 0.00 0.00 89 1003.4
20260508235213 74 75 2.0 5.0 0.00 0.00 0.00 89 1003.5
20260508235114 74 72 2.0 5.0 0.00 0.00 0.00 89 1003.4
20260508235013 74 75 2.0 5.0 0.00 0.00 0.00 89 1003.4
20260508234915 74 92 0.0 5.0 0.00 0.00 0.00 89 1003.3
20260508234814 74 113 1.0 5.0 0.00 0.00 0.00 89 1003.4
20260508234715 74 113 2.0 5.0 0.00 0.00 0.00 89 1003.4
20260508234614 74 79 3.0 5.0 0.00 0.00 0.00 89 1003.4
20260508234514 74 92 2.0 5.0 0.00 0.00 0.00 89 1003.4
20260508234412 74 87 2.0 5.0 0.00 0.00 0.00 89 1003.3
20260508234313 74 86 2.0 6.0 0.00 0.00 0.00 89 1003.4
20260508234213 74 89 1.0 6.0 0.00 0.00 0.00 89 1003.4
20260508234115 74 89 2.0 9.0 0.00 0.00 0.00 89 1003.5
20260508234012 74 89 3.0 9.0 0.00 0.00 0.00 89 1003.4
20260508233914 74 85 2.0 9.0 0.00 0.00 0.00 89 1003.3
20260508233812 74 103 2.0 9.0 0.00 0.00 0.00 89 1003.3
20260508233714 74 104 3.0 9.0 0.00 0.00 0.00 88 1003.2
20260508233614 74 79 2.0 9.0 0.00 0.00 0.00 88 1003.3
20260508233515 74 78 2.0 9.0 0.00 0.00 0.00 88 1003.1
20260508233414 74 78 4.0 9.0 0.00 0.00 0.00 88 1003.3
20260508233313 74 94 4.0 9.0 0.00 0.00 0.00 88 1003.3
20260508233213 74 79 4.0 9.0 0.00 0.00 0.00 88 1003.3
20260508233114 74 94 4.0 7.0 0.00 0.00 0.00 88 1003.3
20260508233014 74 76 3.0 7.0 0.00 0.00 0.00 88 1003.3
20260508232912 74 96 2.0 7.0 0.00 0.00 0.00 88 1003.3
20260508232812 74 97 3.0 7.0 0.00 0.00 0.00 88 1003.3
20260508232712 74 80 4.0 7.0 0.00 0.00 0.00 88 1003.3
20260508232613 74 90 4.0 7.0 0.00 0.00 0.00 88 1003.4
20260508232513 74 89 4.0 7.0 0.00 0.00 0.00 87 1003.3
20260508232413 74 102 4.0 7.0 0.00 0.00 0.00 87 1003.4
20260508232314 74 93 2.0 7.0 0.00 0.00 0.00 88 1003.4
20260508232214 74 80 2.0 7.0 0.00 0.00 0.00 88 1003.5
20260508232112 74 80 3.0 7.0 0.00 0.00 0.00 87 1003.5
20260508232015 74 69 4.0 7.0 0.00 0.00 0.00 87 1003.5
20260508231912 74 92 5.0 7.0 0.00 0.00 0.00 87 1003.6
20260508231813 74 92 5.0 7.0 0.00 0.00 0.00 87 1003.6
20260508231712 74 96 5.0 7.0 0.00 0.00 0.00 87 1003.5
20260508231614 74 87 4.0 7.0 0.00 0.00 0.00 87 1003.6
20260508231513 74 94 4.0 7.0 0.00 0.00 0.00 87 1003.6
20260508231412 74 96 4.0 7.0 0.00 0.00 0.00 87 1003.6
20260508231313 74 85 4.0 7.0 0.00 0.00 0.00 88 1003.6
20260508231212 74 80 4.0 7.0 0.00 0.00 0.00 88 1003.6
20260508231113 74 110 4.0 7.0 0.00 0.00 0.00 88 1003.6
20260508231013 74 104 3.0 6.0 0.00 0.00 0.00 88 1003.5
20260508230914 74 104 2.0 6.0 0.00 0.00 0.00 88 1003.5
20260508230813 74 106 2.0 6.0 0.00 0.00 0.00 88 1003.6
20260508230712 74 96 3.0 6.0 0.00 0.00 0.00 87 1003.6
20260508230613 74 90 2.0 6.0 0.00 0.00 0.00 87 1003.6
20260508230513 74 97 2.0 6.0 0.00 0.00 0.00 87 1003.6
20260508230414 74 97 4.0 6.0 0.00 0.00 0.00 87 1003.6
20260508230312 74 65 4.0 6.0 0.00 0.00 0.00 87 1003.7
20260508230214 74 92 3.0 9.0 0.00 0.00 0.00 87 1003.6
20260508230114 74 93 2.0 9.0 0.00 0.00 0.00 87 1003.5
20260508230013 74 83 2.0 9.0 0.00 0.00 0.00 87 1003.5
20260508225913 74 83 3.0 9.0 0.00 0.00 0.00 87 1003.6
20260508225813 74 79 3.0 9.0 0.00 0.00 0.00 87 1003.5
20260508225712 74 65 2.0 9.0 0.00 0.00 0.00 87 1003.5
20260508225613 74 96 2.0 9.0 0.00 0.00 0.00 87 1003.5
20260508225513 74 100 4.0 9.0 0.00 0.00 0.00 87 1003.6
20260508225414 74 96 6.0 9.0 0.00 0.00 0.00 87 1003.6
20260508225311 74 86 6.0 9.0 0.00 0.00 0.00 87 1003.5
20260508225212 74 104 5.0 7.0 0.00 0.00 0.00 87 1003.6
20260508225113 74 79 5.0 7.0 0.00 0.00 0.00 87 1003.5
20260508225012 74 118 4.0 7.0 0.00 0.00 0.00 87 1003.5
20260508224913 74 99 4.0 7.0 0.00 0.00 0.00 87 1003.5
20260508224811 74 94 5.0 7.0 0.00 0.00 0.00 87 1003.4
20260508224713 74 96 3.0 7.0 0.00 0.00 0.00 87 1003.4
20260508224613 74 100 3.0 7.0 0.00 0.00 0.00 87 1003.4
20260508224513 74 86 3.0 7.0 0.00 0.00 0.00 87 1003.4
20260508224412 74 69 3.0 7.0 0.00 0.00 0.00 87 1003.4
20260508224311 74 62 3.0 7.0 0.00 0.00 0.00 87 1003.4
20260508224213 74 76 2.0 7.0 0.00 0.00 0.00 87 1003.3
20260508224112 74 76 3.0 7.0 0.00 0.00 0.00 87 1003.4
20260508224012 74 82 5.0 7.0 0.00 0.00 0.00 87 1003.4
20260508223912 75 82 5.0 7.0 0.00 0.00 0.00 87 1003.4
20260508223812 75 104 4.0 6.0 0.00 0.00 0.00 87 1003.4
20260508223711 75 100 4.0 7.0 0.00 0.00 0.00 87 1003.4
20260508223611 75 92 4.0 7.0 0.00 0.00 0.00 87 1003.4
20260508223513 75 96 4.0 9.0 0.00 0.00 0.00 87 1003.4
20260508223411 75 63 4.0 9.0 0.00 0.00 0.00 87 1003.4
20260508223312 75 80 3.0 9.0 0.00 0.00 0.00 87 1003.4
20260508223213 75 66 3.0 9.0 0.00 0.00 0.00 87 1003.4
20260508223114 75 69 2.0 9.0 0.00 0.00 0.00 87 1003.4
20260508223011 75 42 3.0 9.0 0.00 0.00 0.00 86 1003.3
20260508222911 75 94 5.0 9.0 0.00 0.00 0.00 86 1003.4
20260508222813 75 94 5.0 9.0 0.00 0.00 0.00 86 1003.4
20260508222711 75 80 5.0 9.0 0.00 0.00 0.00 86 1003.5
20260508222612 75 83 4.0 9.0 0.00 0.00 0.00 86 1003.4
20260508222511 75 104 3.0 6.0 0.00 0.00 0.00 86 1003.5
20260508222411 75 96 4.0 6.0 0.00 0.00 0.00 86 1003.4
20260508222312 75 39 3.0 9.0 0.00 0.00 0.00 86 1003.4
20260508222212 75 8 2.0 9.0 0.00 0.00 0.00 87 1003.4
20260508222112 75 75 2.0 9.0 0.00 0.00 0.00 86 1003.4
20260508222011 75 56 3.0 9.0 0.00 0.00 0.00 86 1003.4
20260508221911 75 58 3.0 9.0 0.00 0.00 0.00 86 1003.4
20260508221811 75 79 2.0 9.0 0.00 0.00 0.00 86 1003.4
20260508221711 75 78 3.0 9.0 0.00 0.00 0.00 86 1003.3
20260508221611 75 83 4.0 9.0 0.00 0.00 0.00 86 1003.4
20260508221511 75 89 5.0 9.0 0.00 0.00 0.00 86 1003.4
20260508221412 75 78 4.0 9.0 0.00 0.00 0.00 86 1003.4
20260508221312 75 83 2.0 7.0 0.00 0.00 0.00 86 1003.4
20260508221211 75 83 2.0 7.0 0.00 0.00 0.00 86 1003.5
20260508221112 75 80 2.0 7.0 0.00 0.00 0.00 86 1003.5
20260508221010 75 63 2.0 7.0 0.00 0.00 0.00 86 1003.4
20260508220912 75 103 3.0 7.0 0.00 0.00 0.00 86 1003.5
20260508220811 75 83 3.0 7.0 0.00 0.00 0.00 86 1003.5
20260508220712 75 63 4.0 7.0 0.00 0.00 0.00 86 1003.5
20260508220611 75 110 4.0 9.0 0.00 0.00 0.00 86 1003.5
20260508220511 75 75 4.0 9.0 0.00 0.00 0.00 86 1003.5
20260508220411 75 100 3.0 9.0 0.00 0.00 0.00 86 1003.4
20260508220311 75 47 2.0 9.0 0.00 0.00 0.00 86 1003.5
20260508220203 75 76 4.0 9.0 0.00 0.00 0.00 86 1003.5
20260508220106 75 80 4.0 9.0 0.00 0.00 0.00 86 1003.5
20260508220004 75 69 4.0 9.0 0.00 0.00 0.00 86 1003.6
20260508215904 75 76 4.0 9.0 0.00 0.00 0.00 86 1003.6
20260508215803 75 79 5.0 9.0 0.00 0.00 0.00 86 1003.5
20260508215702 75 78 5.0 9.0 0.00 0.00 0.00 86 1003.6
20260508215603 75 92 3.0 6.0 0.00 0.00 0.00 86 1003.6
20260508215502 75 92 3.0 6.0 0.00 0.00 0.00 86 1003.6
20260508215404 75 37 3.0 6.0 0.00 0.00 0.00 86 1003.5
20260508215306 75 86 3.0 6.0 0.00 0.00 0.00 86 1003.6
20260508215203 75 68 3.0 6.0 0.00 0.00 0.00 86 1003.6
20260508215102 75 66 3.0 6.0 0.00 0.00 0.00 86 1003.6
20260508215002 75 75 4.0 6.0 0.00 0.00 0.00 86 1003.6
20260508214904 75 90 5.0 7.0 0.00 0.00 0.00 86 1003.6
20260508214802 76 97 4.0 7.0 0.00 0.00 0.00 86 1003.6
20260508214702 76 110 3.0 7.0 0.00 0.00 0.00 86 1003.6
20260508214603 75 92 3.0 7.0 0.00 0.00 0.00 86 1003.6
20260508214502 76 59 5.0 7.0 0.00 0.00 0.00 86 1003.6
20260508214404 76 38 4.0 7.0 0.00 0.00 0.00 86 1003.6
20260508214303 76 63 3.0 7.0 0.00 0.00 0.00 86 1003.6
20260508214203 76 62 3.0 7.0 0.00 0.00 0.00 86 1003.6
20260508214103 76 89 4.0 7.0 0.00 0.00 0.00 86 1003.6
20260508214003 76 66 4.0 7.0 0.00 0.00 0.00 86 1003.6
20260508213904 76 93 4.0 6.0 0.00 0.00 0.00 86 1003.6
20260508213803 76 107 4.0 6.0 0.00 0.00 0.00 86 1003.5
20260508213703 76 92 3.0 6.0 0.00 0.00 0.00 86 1003.5
20260508213604 76 96 3.0 6.0 0.00 0.00 0.00 86 1003.5
20260508213504 76 66 3.0 6.0 0.00 0.00 0.00 86 1003.5
20260508213403 76 78 2.0 6.0 0.00 0.00 0.00 86 1003.5
20260508213304 76 92 2.0 6.0 0.00 0.00 0.00 86 1003.5
20260508213202 75 86 2.0 6.0 0.00 0.00 0.00 86 1003.5
20260508213102 75 82 4.0 6.0 0.00 0.00 0.00 86 1003.6
20260508213005 75 86 3.0 6.0 0.00 0.00 0.00 86 1003.5
20260508212902 75 100 2.0 6.0 0.00 0.00 0.00 86 1003.6
20260508212802 75 100 4.0 6.0 0.00 0.00 0.00 86 1003.6
20260508212704 75 83 3.0 6.0 0.00 0.00 0.00 86 1003.6
20260508212603 75 73 2.0 5.0 0.00 0.00 0.00 86 1003.7
20260508212504 75 58 3.0 5.0 0.00 0.00 0.00 86 1003.8
20260508212403 75 63 3.0 5.0 0.00 0.00 0.00 86 1003.7
20260508212306 75 66 2.0 5.0 0.00 0.00 0.00 86 1003.8
20260508212203 75 68 2.0 5.0 0.00 0.00 0.00 86 1003.9
20260508212102 75 68 3.0 5.0 0.00 0.00 0.00 86 1003.9
20260508212006 75 69 3.0 5.0 0.00 0.00 0.00 86 1004.0
20260508211903 75 75 1.0 5.0 0.00 0.00 0.00 86 1004.0
20260508211803 75 75 1.0 5.0 0.00 0.00 0.00 86 1004.0
20260508211702 75 75 2.0 5.0 0.00 0.00 0.00 86 1004.0
20260508211603 75 75 2.0 5.0 0.00 0.00 0.00 86 1004.0
20260508211502 75 78 2.0 5.0 0.00 0.00 0.00 85 1004.0
20260508211404 75 78 1.0 5.0 0.00 0.00 0.00 85 1004.1
20260508211303 75 78 2.0 5.0 0.00 0.00 0.00 85 1004.1
20260508211203 76 78 2.0 5.0 0.00 0.00 0.00 86 1004.1
20260508211102 76 79 2.0 5.0 0.00 0.00 0.00 86 1004.2
20260508211004 76 79 1.0 5.0 0.00 0.00 0.00 86 1004.1
20260508210903 76 79 1.0 5.0 0.00 0.00 0.00 86 1004.2
20260508210802 75 79 1.0 5.0 0.00 0.00 0.00 86 1004.2
20260508210701 75 79 2.0 5.0 0.00 0.00 0.00 86 1004.1
20260508210603 75 79 3.0 5.0 0.00 0.00 0.00 86 1004.1
20260508210503 75 75 3.0 5.0 0.00 0.00 0.00 86 1004.1
20260508210402 75 116 3.0 5.0 0.00 0.00 0.00 86 1004.1
20260508210302 75 117 2.0 4.0 0.00 0.00 0.00 86 1004.2
20260508210203 75 117 2.0 5.0 0.00 0.00 0.00 86 1004.2
20260508210104 75 117 3.0 5.0 0.00 0.00 0.00 86 1004.2
20260508210004 75 117 2.0 6.0 0.00 0.00 0.00 86 1004.1
20260508205854 75 106 2.0 6.0 0.00 0.00 0.00 85 1004.1
20260508205751 75 106 2.0 6.0 0.00 0.00 0.00 85 1004.1
20260508205647 75 106 2.0 6.0 0.00 0.00 0.00 86 1004.1
20260508205542 75 106 2.0 6.0 0.00 0.00 0.00 86 1004.1
20260508205440 75 106 3.0 6.0 0.00 0.00 0.00 86 1004.0
20260508205337 75 103 3.0 6.0 0.00 0.00 0.00 85 1004.2
20260508205232 75 90 3.0 6.0 0.00 0.00 0.00 85 1004.1
20260508205131 75 90 3.0 6.0 0.00 0.00 0.00 85 1004.2
20260508205031 75 78 3.0 6.0 0.00 0.00 0.00 85 1004.2
20260508204932 75 99 2.0 5.0 0.00 0.00 0.00 85 1004.3
20260508204833 75 99 2.0 5.0 0.00 0.00 0.00 85 1004.2
20260508204733 75 97 2.0 5.0 0.00 0.00 0.00 85 1004.3
20260508204631 75 97 3.0 5.0 0.00 0.00 0.00 85 1004.3
20260508204533 75 89 3.0 5.0 0.00 0.00 0.00 85 1004.3
20260508204431 75 82 2.0 5.0 0.00 0.00 0.00 85 1004.3
20260508204332 75 80 1.0 5.0 0.00 0.00 0.00 85 1004.4
20260508204232 75 82 1.0 5.0 0.00 0.00 0.00 85 1004.4
20260508204133 75 82 2.0 6.0 0.00 0.00 0.00 85 1004.4
20260508204034 75 82 2.0 6.0 0.00 0.00 0.00 85 1004.3
20260508203932 75 79 3.0 6.0 0.00 0.00 0.00 85 1004.3
20260508203832 75 72 3.0 6.0 0.00 0.00 0.00 85 1004.3
20260508203732 76 90 2.0 7.0 0.00 0.00 0.00 85 1004.2
20260508203624 75 83 2.0 7.0 0.00 0.00 0.00 85 1004.1
20260508203517 75 83 2.0 7.0 0.00 0.00 0.00 85 1004.2
20260508203412 75 87 2.0 7.0 0.00 0.00 0.00 85 1004.1
20260508203310 75 89 3.0 7.0 0.00 0.00 0.00 85 1004.0
20260508203208 75 93 4.0 7.0 0.00 0.00 0.00 85 1004.0
20260508203110 75 89 4.0 7.0 0.00 0.00 0.00 85 1004.1
20260508203010 75 114 5.0 7.0 0.00 0.00 0.00 85 1004.0
20260508202910 75 117 5.0 7.0 0.00 0.00 0.00 85 1004.1
20260508202809 75 103 3.0 7.0 0.00 0.00 0.00 85 1004.1
20260508202709 75 110 3.0 5.0 0.00 0.00 0.00 86 1004.1
20260508202610 75 104 3.0 5.0 0.00 0.00 0.00 85 1004.2
20260508202510 75 102 4.0 5.0 0.00 0.00 0.00 85 1004.4
20260508202408 75 94 4.0 5.0 0.00 0.00 0.00 85 1004.4
20260508202310 75 104 3.0 7.0 0.00 0.00 0.00 85 1004.5
20260508202208 75 103 3.0 10.0 0.00 0.00 0.00 85 1004.5
20260508202109 75 104 3.0 10.0 0.00 0.00 0.00 85 1004.5
20260508202008 75 103 3.0 10.0 0.00 0.00 0.00 85 1004.5
20260508201910 75 92 2.0 10.0 0.00 0.00 0.00 85 1004.5
20260508201810 75 104 6.0 10.0 0.00 0.00 0.00 85 1004.5
20260508201710 75 104 6.0 10.0 0.00 0.00 0.00 85 1004.4
20260508201609 75 104 6.0 10.0 0.00 0.00 0.00 85 1004.3
20260508201510 75 104 6.0 10.0 0.00 0.00 0.00 85 1004.4
20260508201409 75 104 6.0 10.0 0.00 0.00 0.00 85 1004.3
20260508201308 75 90 6.0 10.0 0.00 0.00 0.00 85 1004.3
20260508201208 75 87 6.0 9.0 0.00 0.00 0.00 85 1004.3
20260508201108 75 96 5.0 9.0 0.00 0.00 0.00 86 1004.3
20260508201010 75 90 6.0 9.0 0.00 0.00 0.00 86 1004.3
20260508200909 75 48 6.0 9.0 0.00 0.00 0.00 86 1004.3
20260508200811 75 103 5.0 7.0 0.00 0.00 0.00 86 1004.3
20260508200710 75 94 5.0 7.0 0.00 0.00 0.00 85 1004.2
20260508200610 75 103 5.0 9.0 0.00 0.00 0.00 85 1004.3
20260508200509 75 87 6.0 9.0 0.00 0.00 0.00 85 1004.3
20260508200409 75 111 5.0 9.0 0.00 0.00 0.00 85 1004.3
20260508200309 75 116 4.0 9.0 0.00 0.00 0.00 86 1004.4
20260508200209 75 76 4.0 9.0 0.00 0.00 0.00 86 1004.4
20260508200108 75 97 4.0 9.0 0.00 0.00 0.00 86 1004.4
20260508200009 75 107 4.0 9.0 0.00 0.00 0.00 85 1004.4
20260508195909 74 111 5.0 9.0 0.00 0.00 0.00 85 1004.5
20260508195809 74 104 5.0 9.0 0.00 0.00 0.00 85 1004.4
20260508195711 74 111 5.0 9.0 0.00 0.00 0.00 85 1004.3
20260508195610 74 87 6.0 9.0 0.00 0.00 0.00 85 1004.4
20260508195510 75 114 7.0 9.0 0.00 0.00 0.00 86 1004.4
20260508195410 75 104 6.0 9.0 0.00 0.00 0.00 86 1004.4
20260508195307 75 100 5.0 9.0 0.00 0.00 0.00 86 1004.4
20260508195209 74 97 6.0 9.0 0.00 0.00 0.00 86 1004.5
20260508195108 74 106 6.0 9.0 0.00 0.00 0.00 86 1004.5
20260508195007 74 106 5.0 7.0 0.00 0.00 0.00 86 1004.5
20260508194908 74 106 4.0 6.0 0.00 0.00 0.00 86 1004.7
20260508194808 74 140 3.0 6.0 0.00 0.00 0.00 86 1004.7
20260508194709 74 140 3.0 6.0 0.00 0.00 0.00 86 1004.8
20260508194609 74 140 3.0 6.0 0.00 0.00 0.00 86 1004.8
20260508194509 74 141 3.0 6.0 0.00 0.00 0.00 86 1004.9
20260508194409 74 144 2.0 10.0 0.00 0.00 0.00 86 1005.0
20260508194308 74 148 3.0 10.0 0.00 0.00 0.00 86 1004.9
20260508194207 74 123 3.0 10.0 0.00 0.00 0.00 86 1004.9
20260508194108 74 118 3.0 11.0 0.00 0.00 0.00 86 1004.9
20260508194008 74 103 4.0 11.0 0.00 0.00 0.00 85 1004.8
20260508193908 74 114 4.0 11.0 0.00 0.00 0.00 86 1004.9
20260508193807 74 92 4.0 11.0 0.00 0.00 0.00 86 1004.8
20260508193708 74 121 4.0 11.0 0.00 0.00 0.00 86 1004.8
20260508193607 74 93 4.0 11.0 0.00 0.00 0.00 86 1004.8
20260508193507 74 90 6.0 11.0 0.00 0.00 0.00 85 1004.7
20260508193409 74 113 6.0 11.0 0.00 0.00 0.00 86 1004.7
20260508193310 74 92 7.0 11.0 0.00 0.00 0.00 86 1004.7
20260508193209 74 104 7.0 11.0 0.00 0.00 0.00 86 1004.7
20260508193107 74 120 6.0 9.0 0.00 0.00 0.00 87 1004.6
20260508193007 74 103 6.0 9.0 0.00 0.00 0.00 87 1004.6
20260508192908 74 117 6.0 9.0 0.00 0.00 0.00 88 1004.7
20260508192808 74 102 2.0 6.0 0.00 0.00 0.00 88 1004.8
20260508192710 74 107 2.0 6.0 0.00 0.00 0.00 88 1004.8
20260508192609 74 109 4.0 6.0 0.00 0.00 0.00 88 1004.8
20260508192508 73 97 3.0 6.0 0.00 0.00 0.00 88 1004.9
20260508192409 73 83 2.0 5.0 0.00 0.00 0.00 88 1005.0
20260508192308 73 76 2.0 5.0 0.00 0.00 0.00 88 1005.1
20260508192209 73 62 2.0 5.0 0.00 0.00 0.00 88 1005.1
20260508192108 73 61 2.0 5.0 0.00 0.00 0.00 88 1005.2
20260508192007 73 61 2.0 5.0 0.00 0.00 0.00 88 1005.2
20260508191909 73 90 2.0 5.0 0.00 0.00 0.00 88 1005.2
20260508191808 73 121 2.0 5.0 0.00 0.00 0.00 87 1005.3
20260508191708 72 121 3.0 5.0 0.00 0.00 0.00 87 1005.4
20260508191607 72 121 3.0 5.0 0.00 0.00 0.00 87 1005.4
20260508191508 72 123 2.0 5.0 0.00 0.00 0.00 87 1005.4
20260508191407 72 131 2.0 3.0 0.00 0.00 0.00 87 1005.4
20260508191307 72 131 2.0 3.0 0.00 0.00 0.00 87 1005.4
20260508191207 72 133 1.0 3.0 0.00 0.00 0.00 87 1005.6
20260508191109 72 134 1.0 3.0 0.00 0.00 0.00 87 1005.6
20260508191008 72 134 1.0 3.0 0.00 0.00 0.00 87 1005.5
20260508190908 72 134 1.0 3.0 0.00 0.00 0.00 86 1005.6
20260508190808 72 134 2.0 3.0 0.00 0.00 0.00 87 1005.6
20260508190708 72 134 2.0 3.0 0.00 0.00 0.00 87 1005.6
20260508190606 72 134 1.0 3.0 0.00 0.00 0.00 87 1005.7
20260508190506 72 134 1.0 3.0 0.00 0.00 0.00 86 1005.7
20260508190407 72 134 1.0 3.0 0.00 0.00 0.00 86 1005.7
20260508190308 72 134 1.0 3.0 0.00 0.00 0.00 86 1005.6
20260508190207 72 134 2.0 3.0 0.00 0.00 0.00 86 1005.7
20260508190106 72 134 2.0 3.0 0.00 0.00 0.00 86 1005.7
20260508190007 72 134 2.0 3.0 0.00 0.00 0.00 86 1005.7
20260508185907 72 135 2.0 3.0 0.00 0.00 0.00 86 1005.6
20260508185807 72 135 2.0 3.0 0.00 0.00 0.00 86 1005.7
20260508185707 72 135 2.0 4.0 0.00 0.00 0.00 86 1005.7
20260508185606 72 135 1.0 4.0 0.00 0.00 0.00 86 1005.6
20260508185506 72 137 1.0 5.0 0.00 0.00 0.00 86 1005.6
20260508185406 72 137 1.0 5.0 0.00 0.00 0.00 86 1005.6
20260508185307 72 137 1.0 5.0 0.00 0.00 0.00 85 1005.6
20260508185208 72 137 1.0 5.0 0.00 0.00 0.00 85 1005.5
20260508185107 73 137 1.0 5.0 0.00 0.00 0.00 85 1005.5
20260508185007 72 138 1.0 5.0 0.00 0.00 0.00 85 1005.5
20260508184908 72 138 2.0 6.0 0.00 0.00 0.00 85 1005.4
20260508184807 73 87 3.0 10.0 0.00 0.00 0.00 85 1005.5
20260508184706 73 87 3.0 10.0 0.00 0.00 0.00 85 1005.4
20260508184609 73 85 3.0 10.0 0.00 0.00 0.00 85 1005.5
20260508184506 73 104 4.0 10.0 0.00 0.00 0.00 85 1005.4
20260508184408 73 111 4.0 10.0 0.00 0.00 0.00 85 1005.5
20260508184307 73 113 3.0 10.0 0.00 0.00 0.00 84 1005.4
20260508184206 73 102 4.0 10.0 0.00 0.00 0.00 84 1005.4
20260508184107 73 102 4.0 10.0 0.00 0.00 0.00 84 1005.5
20260508184006 73 90 5.0 10.0 0.00 0.00 0.00 84 1005.5
20260508183907 73 78 4.0 10.0 0.00 0.00 0.00 84 1005.5
20260508183807 73 93 4.0 7.0 0.00 0.00 0.00 84 1005.4
20260508183706 73 106 3.0 7.0 0.00 0.00 0.00 85 1005.4
20260508183606 73 83 3.0 7.0 0.00 0.00 0.00 85 1005.4
20260508183507 73 59 3.0 7.0 0.00 0.00 0.00 84 1005.3
20260508183407 73 65 3.0 7.0 0.00 0.00 0.00 84 1005.4
20260508183308 73 52 4.0 7.0 0.00 0.00 0.00 84 1005.4
20260508183207 73 89 4.0 7.0 0.00 0.00 0.00 84 1005.4
20260508183107 73 82 3.0 7.0 0.00 0.00 0.00 84 1005.4
20260508183006 73 68 4.0 7.0 0.00 0.00 0.00 84 1005.5
20260508182907 73 69 5.0 7.0 0.00 0.00 0.00 84 1005.4
20260508182806 73 80 3.0 7.0 0.00 0.00 0.00 85 1005.4
20260508182706 73 87 2.0 6.0 0.00 0.00 0.00 85 1005.5
20260508182608 73 93 2.0 6.0 0.00 0.00 0.00 85 1005.4
20260508182505 73 100 4.0 7.0 0.00 0.00 0.00 85 1005.4
20260508182405 73 102 5.0 7.0 0.00 0.00 0.00 85 1005.4
20260508182306 73 103 4.0 7.0 0.00 0.00 0.00 85 1005.3
20260508182205 72 110 5.0 7.0 0.00 0.00 0.00 85 1005.3
20260508182106 72 102 4.0 7.0 0.00 0.00 0.00 85 1005.4
20260508182005 72 92 4.0 7.0 0.00 0.00 0.00 85 1005.4
20260508181905 72 76 4.0 7.0 0.00 0.00 0.00 85 1005.3
20260508181806 72 76 4.0 7.0 0.00 0.00 0.00 85 1005.3
20260508181706 72 41 4.0 7.0 0.00 0.00 0.00 85 1005.2
20260508181606 72 44 4.0 7.0 0.00 0.00 0.00 85 1005.3
20260508181505 72 58 3.0 6.0 0.00 0.00 0.00 85 1005.2
20260508181406 72 83 4.0 6.0 0.00 0.00 0.00 85 1005.2
20260508181305 72 93 3.0 9.0 0.00 0.00 0.00 85 1005.2
20260508181206 72 110 2.0 9.0 0.00 0.00 0.00 85 1005.3
20260508181107 72 113 3.0 9.0 0.00 0.00 0.00 85 1005.3
20260508181007 72 114 3.0 9.0 0.00 0.00 0.00 85 1005.4
20260508180905 72 117 3.0 9.0 0.00 0.00 0.00 85 1005.4
20260508180806 72 118 3.0 9.0 0.00 0.00 0.00 85 1005.4
20260508180706 71 109 4.0 9.0 0.00 0.00 0.00 85 1005.5
20260508180606 71 109 5.0 9.0 0.00 0.00 0.00 85 1005.5
20260508180505 72 102 6.0 9.0 0.00 0.00 0.00 85 1005.5
20260508180407 72 85 6.0 9.0 0.00 0.00 0.00 85 1005.6
20260508180305 72 93 5.0 9.0 0.00 0.00 0.00 85 1005.6
20260508180207 72 97 5.0 7.0 0.00 0.00 0.00 85 1005.6
20260508180106 72 117 5.0 7.0 0.00 0.00 0.00 85 1005.6
20260508180006 72 89 5.0 7.0 0.00 0.00 0.00 85 1005.6
20260508175905 72 99 5.0 7.0 0.00 0.00 0.00 85 1005.7
20260508175806 72 107 4.0 7.0 0.00 0.00 0.00 84 1005.7
20260508175705 72 102 5.0 7.0 0.00 0.00 0.00 84 1005.7
20260508175605 72 96 5.0 7.0 0.00 0.00 0.00 84 1005.8
20260508175505 72 93 5.0 7.0 0.00 0.00 0.00 84 1005.8
20260508175405 72 100 4.0 7.0 0.00 0.00 0.00 84 1005.9
20260508175306 72 106 4.0 7.0 0.00 0.00 0.00 84 1005.8
20260508175205 72 104 4.0 7.0 0.00 0.00 0.00 84 1005.9
20260508175105 72 94 4.0 7.0 0.00 0.00 0.00 84 1005.8
20260508175005 72 103 4.0 7.0 0.00 0.00 0.00 84 1005.8
20260508174906 72 104 4.0 7.0 0.00 0.00 0.00 84 1005.8
20260508174805 72 104 3.0 7.0 0.00 0.00 0.00 84 1005.8
20260508174705 72 121 2.0 7.0 0.00 0.00 0.00 84 1005.8
20260508174607 72 82 3.0 7.0 0.00 0.00 0.00 84 1005.7
20260508174506 72 75 5.0 7.0 0.00 0.00 0.00 84 1005.7
20260508174407 72 100 4.0 7.0 0.00 0.00 0.00 84 1005.7
20260508174306 72 103 3.0 6.0 0.00 0.00 0.00 84 1005.7
20260508174205 72 92 3.0 6.0 0.00 0.00 0.00 84 1005.9
20260508174105 72 65 4.0 6.0 0.00 0.00 0.00 84 1005.8
20260508174005 72 86 3.0 6.0 0.00 0.00 0.00 84 1005.9
20260508173904 72 47 3.0 5.0 0.00 0.00 0.00 84 1005.9
20260508173804 72 41 4.0 5.0 0.00 0.00 0.00 84 1005.9
20260508173707 72 72 2.0 5.0 0.00 0.00 0.00 84 1006.1
20260508173607 72 75 1.0 5.0 0.00 0.00 0.00 85 1006.2
20260508173505 72 56 1.0 5.0 0.00 0.00 0.00 84 1006.1
20260508173405 71 56 2.0 5.0 0.00 0.00 0.00 85 1006.2
20260508173304 71 58 0.0 5.0 0.00 0.00 0.00 84 1006.3
20260508173205 71 62 1.0 5.0 0.00 0.00 0.00 84 1006.2
20260508173106 71 62 2.0 5.0 0.00 0.00 0.00 84 1006.2
20260508173006 71 59 3.0 5.0 0.00 0.00 0.00 84 1006.2
20260508172904 71 76 2.0 4.0 0.00 0.00 0.00 84 1006.2
20260508172805 71 75 2.0 3.0 0.00 0.00 0.00 84 1006.3
20260508172704 71 75 1.0 3.0 0.00 0.00 0.00 84 1006.3
20260508172606 71 75 1.0 5.0 0.00 0.00 0.00 84 1006.4
20260508172505 71 75 1.0 6.0 0.00 0.00 0.00 84 1006.3
20260508172405 71 75 1.0 6.0 0.00 0.00 0.00 85 1006.4
20260508172307 71 75 0.0 6.0 0.00 0.00 0.00 85 1006.5
20260508172204 71 75 1.0 6.0 0.00 0.00 0.00 84 1006.4
20260508172104 71 75 1.0 6.0 0.00 0.00 0.00 84 1006.5
20260508172005 71 76 1.0 6.0 0.00 0.00 0.00 85 1006.3
20260508171905 71 76 1.0 6.0 0.00 0.00 0.00 85 1006.3
20260508171805 71 76 2.0 6.0 0.00 0.00 0.00 84 1006.2
20260508171706 71 78 3.0 6.0 0.00 0.00 0.00 84 1006.3
20260508171604 71 63 3.0 6.0 0.00 0.00 0.00 84 1006.2
20260508171506 71 80 3.0 4.0 0.00 0.00 0.00 84 1006.2
20260508171404 71 78 3.0 5.0 0.00 0.00 0.00 84 1006.2
20260508171304 71 80 3.0 5.0 0.00 0.00 0.00 84 1006.3
20260508171205 71 75 2.0 6.0 0.00 0.00 0.00 84 1006.3
20260508171104 71 93 2.0 6.0 0.00 0.00 0.00 85 1006.3
20260508171005 71 93 3.0 6.0 0.00 0.00 0.00 84 1006.4
20260508170904 71 92 2.0 7.0 0.00 0.00 0.00 84 1006.4
20260508170804 71 92 2.0 7.0 0.00 0.00 0.00 84 1006.4
20260508170706 71 93 2.0 7.0 0.00 0.00 0.00 84 1006.5
20260508170604 71 96 3.0 7.0 0.00 0.00 0.00 84 1006.4
20260508170503 71 97 3.0 7.0 0.00 0.00 0.00 84 1006.4
20260508170404 71 92 4.0 7.0 0.00 0.00 0.00 84 1006.4
20260508170304 71 79 4.0 7.0 0.00 0.00 0.00 84 1006.4
20260508170204 71 82 3.0 7.0 0.00 0.00 0.00 84 1006.5
20260508170104 71 61 4.0 7.0 0.00 0.00 0.00 83 1006.5
20260508170005 71 76 4.0 7.0 0.00 0.00 0.00 84 1006.5
20260508165904 71 56 3.0 7.0 0.00 0.00 0.00 84 1006.5
20260508165804 71 69 3.0 9.0 0.00 0.00 0.00 84 1006.5
20260508165706 71 52 4.0 9.0 0.00 0.00 0.00 84 1006.4
20260508165603 71 0 4.0 9.0 0.00 0.00 0.00 84 1006.5
20260508165505 71 48 4.0 9.0 0.00 0.00 0.00 83 1006.4
20260508165405 71 58 4.0 9.0 0.00 0.00 0.00 84 1006.5
20260508165306 71 4 4.0 9.0 0.00 0.00 0.00 84 1006.5
20260508165204 71 89 4.0 9.0 0.00 0.00 0.00 83 1006.5
20260508165104 71 97 3.0 10.0 0.00 0.00 0.00 83 1006.4
20260508165005 71 61 4.0 10.0 0.00 0.00 0.00 83 1006.4
20260508164903 71 100 5.0 10.0 0.00 0.00 0.00 83 1006.5
20260508164805 71 110 5.0 10.0 0.00 0.00 0.00 83 1006.5
20260508164704 71 99 5.0 10.0 0.00 0.00 0.00 83 1006.5
20260508164604 71 103 6.0 10.0 0.00 0.00 0.00 83 1006.7
20260508164502 71 103 6.0 10.0 0.00 0.00 0.00 83 1006.6
20260508164404 71 104 6.0 10.0 0.00 0.00 0.00 83 1006.6
20260508164303 71 106 6.0 10.0 0.00 0.00 0.00 84 1006.7
20260508164203 71 87 4.0 10.0 0.00 0.00 0.00 84 1006.6
20260508164104 71 100 3.0 9.0 0.00 0.00 0.00 84 1006.6
20260508164004 71 80 3.0 9.0 0.00 0.00 0.00 84 1006.7
20260508163903 71 27 3.0 9.0 0.00 0.00 0.00 84 1006.6
20260508163803 71 89 5.0 9.0 0.00 0.00 0.00 84 1006.7
20260508163705 71 104 6.0 9.0 0.00 0.00 0.00 84 1006.7
20260508163603 71 104 5.0 7.0 0.00 0.00 0.00 84 1006.7
20260508163504 71 97 5.0 7.0 0.00 0.00 0.00 84 1006.7
20260508163403 71 99 4.0 7.0 0.00 0.00 0.00 83 1006.7
20260508163303 71 82 4.0 6.0 0.00 0.00 0.00 83 1006.6
20260508163203 71 44 4.0 6.0 0.00 0.00 0.00 83 1006.8
20260508163104 71 96 2.0 7.0 0.00 0.00 0.00 83 1006.8
20260508163004 71 61 3.0 7.0 0.00 0.00 0.00 83 1006.8
20260508162905 71 41 3.0 7.0 0.00 0.00 0.00 83 1006.8
20260508162803 71 92 2.0 7.0 0.00 0.00 0.00 83 1006.8
20260508162704 71 89 3.0 7.0 0.00 0.00 0.00 83 1006.9
20260508162604 71 100 4.0 7.0 0.00 0.00 0.00 83 1006.8
20260508162505 71 104 4.0 7.0 0.00 0.00 0.00 83 1006.7
20260508162404 71 87 4.0 9.0 0.00 0.00 0.00 83 1006.7
20260508162306 71 103 4.0 9.0 0.00 0.00 0.00 83 1006.7
20260508162203 71 89 3.0 9.0 0.00 0.00 0.00 83 1006.5
20260508162102 71 83 3.0 12.0 0.00 0.00 0.00 83 1006.6
20260508162003 71 85 3.0 12.0 0.00 0.00 0.00 83 1006.6
20260508161902 71 83 3.0 12.0 0.00 0.00 0.00 83 1006.6
20260508161802 71 54 3.0 12.0 0.00 0.00 0.00 83 1006.7
20260508161704 71 69 2.0 12.0 0.00 0.00 0.00 84 1006.6
20260508161603 71 65 3.0 12.0 0.00 0.00 0.00 83 1006.5
20260508161503 71 72 4.0 12.0 0.00 0.00 0.00 83 1006.5
20260508161403 71 59 3.0 12.0 0.00 0.00 0.00 83 1006.5
20260508161303 71 66 4.0 12.0 0.00 0.00 0.00 83 1006.4
20260508161202 71 96 6.0 12.0 0.00 0.00 0.00 83 1006.5
20260508161102 71 39 5.0 10.0 0.00 0.00 0.00 83 1006.4
20260508161004 71 96 5.0 11.0 0.00 0.00 0.00 84 1006.5
20260508160904 71 85 4.0 11.0 0.00 0.00 0.00 84 1006.4